[{"header": {"dx": 0.06612293990616946, "dy": 0.0552356325346848, "nx": 98, "ny": 59, "la1": 35.046912555036876, "la2": 31.78801023549047, "lo1": -121.43107172385933, "lo2": -114.95102361305473, "refTime": "2026041518", "parameterCategory": 1, "parameterNumber": 2}, "data": [7.11, 7.39, 7.69, 7.82, 8.18, 8.99, 9.92, 10.12, 10.63, 11.21, 11.77, 11.39, 12.98, 12.58, 11.98, 11.51, 8.22, 0.0, -3.68, -3.96, -7.19, -7.19, -8.22, -7.9, -9.3, -9.67, -6.7, -6.94, -5.4, -2.93, -3.04, 0.0, 0.0, 2.19, 3.82, 5.06, 4.83, 5.63, 6.64, 8.55, 9.13, 10.38, 9.3, 9.42, 10.79, 12.09, 13.58, 11.88, 11.72, 12.98, 14.16, 14.75, 14.99, 13.42, 11.06, 11.06, 12.02, 13.58, 13.97, 13.56, 13.56, 13.19, 13.19, 12.79, 13.15, 13.75, 13.75, 13.88, 14.75, 15.71, 15.61, 15.18, 15.49, 15.49, 15.49, 15.49, 14.75, 14.3, 14.75, 14.31, 12.79, 6.0, 5.8, 8.85, 8.53, 11.62, 12.07, 11.18, 10.0, 5.0, 3.04, 3.25, 3.36, 5.18, 5.18, 5.63, 5.11, 3.56, 6.89, 7.17, 7.46, 8.01, 8.18, 8.57, 9.16, 9.62, 10.12, 10.3, 10.62, 11.75, 11.6, 11.72, 12.3, 11.45, 9.2, 3.82, 0.0, -2.28, -4.24, -7.19, -7.19, -9.17, -8.93, -9.3, -8.22, -6.7, -2.93, -2.45, -2.81, 0.0, 0.0, 1.93, 2.99, 4.6, 3.4, 3.32, 3.49, 6.17, 8.85, 10.73, 10.12, 8.53, 10.36, 11.36, 11.8, 11.28, 12.39, 14.55, 14.75, 14.99, 13.59, 12.65, 11.68, 12.02, 13.02, 13.97, 13.97, 13.56, 13.56, 14.18, 13.57, 13.15, 13.15, 13.32, 13.75, 13.88, 14.75, 15.61, 16.15, 15.97, 16.09, 15.2, 15.2, 14.75, 14.75, 14.3, 14.75, 14.31, 12.79, 6.0, 5.8, 8.85, 8.53, 11.62, 12.07, 11.18, 10.0, 5.0, 3.04, 3.25, 3.36, 5.18, 5.18, 5.63, 5.11, 3.56, 6.89, 6.89, 7.17, 7.77, 7.58, 7.93, 8.72, 9.16, 9.32, 9.97, 9.64, 9.52, 11.6, 10.8, 10.4, 10.88, 10.68, 8.22, 0.0, 0.0, -2.28, -3.96, -6.94, -7.44, -11.53, -7.59, -5.95, -3.39, -2.71, 0.0, 0.0, 0.0, 0.0, 2.71, 3.15, 4.0, 2.69, 2.83, 3.11, 5.2, 7.02, 7.95, 8.32, 8.61, 10.69, 11.44, 11.26, 12.45, 14.75, 15.2, 13.59, 13.03, 11.87, 11.87, 11.33, 12.65, 13.97, 13.97, 13.81, 14.31, 14.18, 13.75, 13.15, 13.15, 13.15, 13.75, 14.18, 15.53, 15.53, 15.97, 16.09, 16.09, 15.53, 15.08, 14.6, 14.55, 15.2, 15.2, 13.88, 13.19, 6.4, 6.0, 5.8, 0.0, 0.0, 5.2, 10.0, 10.96, 8.94, 3.44, 1.58, 3.58, 3.58, 3.58, 5.63, 7.44, 5.8, 1.77, 6.64, 6.89, 7.17, 7.46, 7.77, 7.93, 8.31, 8.45, 9.32, 9.48, 8.85, 8.64, 10.61, 10.4, 10.09, 9.46, 9.86, 9.27, 5.2, 1.98, 0.0, 0.0, -3.53, -6.71, -8.53, -7.19, -4.6, -2.39, 0.0, 0.0, 0.0, 0.0, 0.0, 0.0, 3.04, 2.6, 2.02, 3.98, 3.25, 4.72, 6.44, 8.1, 8.61, 8.85, 9.5, 11.26, 13.32, 14.3, 14.55, 13.7, 12.65, 13.03, 12.65, 12.65, 13.19, 13.19, 14.18, 14.31, 14.31, 13.88, 14.18, 13.75, 13.57, 13.15, 13.32, 14.18, 15.18, 15.27, 17.33, 17.88, 16.54, 15.55, 14.65, 12.81, 11.9, 11.88, 14.47, 15.2, 15.2, 0.0, 0.0, 0.0, 0.0, 0.0, 0.0, 6.45, 10.04, 11.03, 1.58, -0.0, 1.68, 3.58, 3.36, 5.28, 7.19, 8.38, 4.81, -0.0, 6.64, 6.89, 7.17, 7.46, 7.77, 7.58, 7.69, 8.45, 8.59, 8.72, 8.53, 8.22, 9.66, 10.4, 9.7, 9.46, 8.82, 8.82, 7.44, 5.4, 4.1, 0.0, 0.0, -3.68, -3.98, -5.4, -3.04, -2.93, 0.0, 0.0, 1.76, 3.53, 1.64, 2.06, 0.0, 0.0, 3.69, 6.2, 2.95, 3.97, 5.8, 7.78, 10.18, 12.03, 12.74, 13.44, 14.19, 14.3, 14.64, 14.61, 13.99, 13.57, 13.57, 13.99, 13.99, 14.18, 14.31, 14.31, 14.31, 13.88, 13.75, 12.74, 12.39, 13.19, 14.18, 15.9, 16.33, 16.05, 17.78, 19.96, 19.67, 17.88, 17.97, 10.46, 5.81, 4.81, 11.53, 14.3, 13.86, 0.0, 0.0, 0.0, 0.0, 0.0, 3.53, 6.45, 10.8, -0.0, -0.0, -0.0, 1.58, 3.14, 3.04, 7.19, 9.17, 9.48, 2.13, -0.0, 6.64, 6.89, 6.89, 7.17, 7.46, 7.53, 7.69, 7.79, 8.18, 8.3, 8.12, 7.52, 9.08, 10.4, 10.46, 10.0, 8.49, 8.22, 7.9, 8.22, 8.22, 10.8, 9.48, 0.0, 0.0, 0.0, -3.82, -2.93, 0.0, 0.0, 1.62, 4.6, 7.27, 8.03, 8.53, 9.8, 0.0, 0.0, 0.0, 0.0, 2.72, 7.36, 9.8, 13.15, 13.15, 14.31, 14.64, 14.3, 14.3, 14.3, 13.72, 13.72, 13.67, 14.11, 14.6, 14.64, 14.64, 14.31, 14.31, 13.88, 13.32, 11.99, 13.19, 13.97, 14.79, 16.33, 16.76, 15.9, 16.33, 19.34, 20.78, 16.09, 5.8, 18.78, -12.96, -5.23, 0.0, 9.17, 0.0, -5.8, 0.0, 0.0, 0.0, 0.0, 2.82, 11.62, -0.0, -0.0, -0.0, -0.0, 1.61, 3.25, 5.28, 8.3, 10.79, 6.9, -0.0, -1.55, 6.43, 6.43, 6.68, 6.94, 7.23, 7.53, 7.11, 7.44, 7.54, 7.63, 7.73, 7.52, 8.75, 9.48, 11.09, 9.6, 9.48, 9.46, 8.49, 8.93, 10.73, 10.4, 10.0, 12.07, 12.52, 10.4, 0.0, 0.0, 0.0, 0.0, 0.0, 4.4, 6.95, 8.15, 10.6, 11.6, -0.0, -9.48, -11.62, -3.82, 0.0, 4.1, 10.12, 14.42, 15.65, 15.2, 16.09, 15.2, 13.86, 13.86, 14.3, 13.86, 14.3, 14.75, 14.3, 13.86, 14.19, 14.19, 14.19, 13.44, 12.89, 11.99, 13.59, 15.47, 15.9, 15.9, 16.33, 15.93, 15.43, 17.64, 18.39, 11.8, 3.33, -0.0, -5.37, -12.01, 15.2, 0.0, 0.0, -9.48, 0.0, 0.0, 0.0, 0.0, 3.82, 8.85, -0.0, -0.0, -0.0, -0.0, 1.9, 5.28, 8.59, 10.3, 11.16, 4.1, -0.0, -0.0, 6.43, 6.43, 6.68, 6.94, 6.94, 7.23, 7.6, 7.44, 7.54, 7.63, 7.44, 7.08, 8.22, 8.82, 10.04, 9.38, 10.0, 10.16, 8.58, 9.6, 10.73, 10.0, 11.21, 10.8, 10.6, 9.97, 8.55, 7.59, 11.62, 0.0, 0.0, 2.82, 6.2, 9.6, 11.18, 6.2, -0.0, -5.0, -11.2, -11.62, 11.18, 12.07, 11.2, 13.15, 12.27, 13.39, 13.99, 15.27, 14.55, 14.3, 12.52, 13.41, 13.86, 13.86, 13.86, 13.86, 13.86, 13.86, 13.41, 12.83, 11.45, 12.72, 14.99, 14.84, 15.27, 16.33, 16.82, 15.49, 14.75, 15.34, 15.99, 12.96, 7.2, 3.07, 2.98, 3.58, 6.4, 13.41, 12.96, -14.3, -13.15, 0.0, 0.0, 3.96, 5.6, 13.41, 3.25, -0.0, -0.0, -0.0, 2.54, 6.67, 10.47, 10.65, 8.38, 1.77, -0.0, -0.0, 6.43, 6.43, 6.68, 6.68, 6.94, 6.99, 7.29, 7.34, 6.94, 7.02, 7.09, 5.86, 8.01, 6.97, 7.27, 7.27, 8.49, 8.94, 8.49, 9.2, 11.18, 11.62, 10.4, 9.66, 9.42, 10.01, 6.64, 5.9, 9.2, 7.59, 0.0, 10.73, 7.59, 9.3, 9.58, 6.17, -0.0, -2.6, -0.0, -0.0, -0.0, 3.04, 5.6, 6.0, 8.58, 8.66, 12.87, 13.59, 14.79, 14.61, 14.47, 12.96, 13.41, 13.72, 13.72, 13.75, 13.72, 12.96, 12.52, 11.62, 12.52, 15.2, 15.2, 15.65, 15.78, 16.99, 17.43, 16.09, 14.75, 14.75, 16.09, 16.22, 15.69, 11.06, 8.18, 7.93, 7.69, 7.19, -0.0, -15.2, -13.57, -6.0, 0.0, 9.8, 11.87, 12.52, 10.79, 4.1, 3.04, 3.14, 5.8, 7.78, 10.12, 9.48, 6.0, 1.77, -0.0, -0.0, 6.43, 6.43, 6.46, 6.46, 6.72, 6.99, 7.29, 7.34, 7.34, 6.94, 7.28, 7.28, 7.15, 7.52, 6.97, 5.0, 5.92, 6.5, 7.9, 10.73, 9.6, 7.59, 3.68, 3.68, 3.53, 6.2, 5.46, 4.4, 7.59, 9.75, 4.8, -0.0, -0.0, 4.8, 6.97, 8.22, 3.39, -0.0, 2.82, 3.04, 5.4, 5.6, 5.4, 5.98, 8.22, 10.12, 11.16, 13.15, 14.65, 14.65, 14.31, 14.75, 14.19, 13.32, 12.74, 13.15, 12.74, 11.45, 10.52, 12.52, 14.75, 16.54, 17.43, 16.09, 16.09, 17.43, 17.7, 15.93, 13.67, 14.03, 14.47, 15.65, 16.09, 16.09, 14.84, 12.39, 9.48, 8.22, 8.53, -0.0, -15.2, -11.7, 0.0, 11.06, 13.15, 13.41, 13.59, 12.39, 9.48, 7.19, 9.17, 10.01, 8.85, 8.1, 5.8, 3.44, 1.77, -0.0, 6.43, 6.43, 6.46, 6.46, 6.72, 6.72, 6.99, 7.04, 7.34, 7.67, 7.67, 7.67, 8.82, 8.87, 9.36, 6.71, 4.75, 5.6, -0.0, -0.0, -0.0, 4.66, 3.36, -0.0, -0.0, -0.0, -0.0, -0.0, 3.11, 5.46, 4.6, 2.58, 3.11, 5.06, 6.95, 8.22, 6.97, 4.32, 5.2, 6.94, 9.17, 7.82, 6.97, 6.7, 6.45, 8.22, 10.8, 12.04, 12.58, 13.31, 14.64, 16.09, 15.97, 15.47, 13.97, 12.71, 11.7, 9.8, 6.95, 13.41, 7.8, 8.0, 11.7, 15.61, 16.09, 17.19, 17.67, 15.99, 13.03, 10.73, 12.87, 13.7, 15.78, 15.61, 15.2, 13.41, 11.62, 11.18, 12.79, 6.8, 15.2, -7.0, -5.09, 5.37, 13.39, 14.47, 15.2, 15.2, 13.88, 13.01, 12.14, 10.41, 8.85, 8.85, 7.54, 5.8, 3.56, 1.83, 6.43, 6.43, 6.46, 6.46, 6.46, 6.72, 6.99, 7.29, 7.29, 7.6, 7.6, 8.05, 8.78, 9.15, 9.37, 9.9, 10.62, 11.84, 7.19, 4.38, -0.0, -0.0, -0.0, -0.0, -4.24, -3.96, -5.4, -0.0, -0.0, 3.39, 5.0, 5.95, 6.7, 6.42, 7.27, 6.7, 7.59, 7.26, 8.22, 8.53, 9.77, 8.53, 6.97, 3.68, 3.39, 6.17, 10.04, 11.2, 12.58, 13.86, 14.3, 16.37, 18.52, 20.12, 18.65, 15.38, 12.07, 0.0, -5.4, -4.38, -0.0, 5.04, 9.67, 12.57, 15.87, 19.03, 20.54, 16.12, 10.35, 8.74, 10.43, 10.82, 12.65, 12.16, 10.79, 7.59, 8.22, 14.75, 15.65, 13.99, 14.39, 16.09, 0.0, 0.0, 5.94, 13.59, 16.19, 14.9, 14.75, 13.86, 12.52, 11.28, 10.4, 10.4, 10.01, 8.1, 5.8, 4.1, 6.43, 6.43, 6.46, 6.46, 6.46, 6.72, 6.72, 6.99, 7.73, 7.73, 8.05, 8.05, 8.46, 9.48, 9.94, 11.33, 12.14, 12.79, 13.41, 13.86, 14.3, 14.75, 15.2, -0.0, -10.12, -12.39, -9.48, -0.0, -0.0, 2.39, 5.75, 6.2, 5.95, 6.42, 6.42, 7.27, 8.03, 9.58, 9.58, 9.58, 9.3, 6.97, 2.71, -0.0, -0.0, 3.39, 6.45, 8.53, 10.79, 11.16, 11.62, 11.5, 8.58, 6.8, 7.6, 8.2, 20.12, 0.0, -15.61, -6.7, -0.0, 3.59, 8.65, 8.93, 14.31, 19.08, 22.35, 20.03, 4.04, 4.12, 8.3, 10.81, 7.36, 5.2, 3.11, 0.0, 0.0, 0.0, 0.0, 11.7, 16.09, 16.54, 16.09, 16.54, 0.0, 5.94, 10.91, 12.64, 14.39, 12.79, 13.44, 11.62, 11.18, 11.62, 12.27, 11.12, 9.17, 6.9, 5.77, 6.22, 6.46, 6.46, 6.46, 6.46, 7.16, 7.44, 7.44, 7.73, 7.73, 8.46, 8.46, 8.83, 9.78, 10.59, 11.85, 12.56, 12.82, 13.59, 13.57, 13.57, 10.43, 0.0, 14.3, -14.3, -9.8, -0.0, -0.0, -0.0, 1.76, 3.39, 5.0, 5.06, 6.14, 6.95, 9.13, 9.2, 9.97, 8.93, 5.95, 2.49, -0.0, -0.0, -0.0, -0.0, 1.84, 6.2, 6.45, 6.94, 6.94, 3.82, -0.0, -0.0, -0.0, 6.44, 13.02, 19.22, -15.17, -6.88, -3.01, 2.57, 5.23, 5.37, 6.52, 9.17, 10.89, 17.81, 9.6, 0.0, 0.0, -5.42, -12.96, -10.28, -11.18, -14.75, -14.79, -15.59, -7.6, 0.0, 7.6, 16.54, 15.65, 10.75, 15.65, 16.54, 0.0, 0.0, 5.51, 13.76, 11.9, 7.9, 10.0, 12.14, 12.52, 12.71, 11.12, 9.17, 5.77, 5.77, 6.68, 6.68, 6.68, 6.46, 7.16, 7.4, 7.44, 7.44, 8.15, 8.15, 8.83, 8.83, 9.48, 9.76, 10.96, 11.69, 12.15, 12.18, 12.45, 12.03, 12.27, 10.12, 0.0, 13.86, -0.0, -0.0, -0.0, -0.0, -0.0, 2.49, 4.15, 4.6, 4.6, 7.27, 9.6, 9.54, 11.18, 6.95, 3.25, -0.0, -0.0, -3.11, -0.0, -0.0, -0.0, -0.0, 2.6, 2.71, 2.82, -0.0, -0.0, -0.0, 2.39, 5.95, 8.22, 11.09, 9.43, -0.0, -1.61, -0.0, 2.72, 2.81, 2.89, 2.98, 3.24, 9.42, 15.27, 0.0, -11.41, -21.46, -17.63, -7.82, -6.9, -11.7, -16.54, -17.88, -12.01, 0.0, 0.0, 0.0, 0.0, 13.41, 9.17, 6.8, -0.0, -16.09, 0.0, 11.7, 12.01, 6.0, 6.97, 10.01, 13.15, 12.71, 11.6, 11.6, 5.77, 5.77, 6.68, 6.68, 6.68, 6.68, 7.13, 7.16, 7.16, 7.85, 7.85, 8.53, 8.53, 9.13, 9.17, 9.48, 10.06, 10.68, 11.16, 11.64, 11.58, 11.99, 12.39, 13.19, 14.31, 14.75, 13.15, 6.2, -0.0, -0.0, -0.0, -0.0, 1.28, 2.1, 1.69, 3.52, 8.23, 9.97, 10.73, -0.0, -0.0, -0.0, -4.6, -3.11, -3.11, -0.0, -0.0, -0.0, -0.0, -0.0, -0.0, -0.0, -0.0, 3.39, 2.97, 5.46, 5.7, 6.45, 6.6, 3.07, -0.0, -0.0, 3.68, 3.82, 6.7, 7.19, 7.78, 12.16, 14.39, 19.67, -21.46, -11.73, -9.32, -4.55, -0.0, -0.0, -6.08, -18.78, -12.96, -5.8, -5.8, 0.0, 0.0, 0.0, 12.07, 7.9, 4.24, -0.0, -0.0, 13.86, 15.65, 3.14, 7.78, 10.73, 11.62, 12.07, 12.52, 12.52, 5.77, 5.96, 6.43, 6.68, 6.68, 6.68, 7.13, 7.13, 7.16, 7.57, 7.85, 8.53, 8.81, 9.13, 8.83, 9.15, 9.48, 10.12, 10.45, 11.28, 11.42, 11.77, 11.72, 12.98, 14.16, 14.3, 14.75, 14.75, -0.0, -2.35, -1.9, -0.0, -1.23, -0.0, -0.0, -0.0, 1.62, -0.0, -0.0, -0.0, -0.0, -0.0, -0.0, -2.17, -3.11, -0.0, -0.0, -0.0, -0.0, -0.0, -0.0, -0.0, 3.53, 3.39, 5.95, 5.7, 5.7, 5.95, 6.7, 5.8, 3.96, 3.53, 4.8, 7.59, 7.59, 7.27, 9.67, 9.67, 11.53, 12.33, -15.49, -11.73, -7.04, -2.61, -0.0, 4.55, 3.77, -0.0, -17.59, -13.28, -9.92, -4.23, -4.12, 0.0, 0.0, 0.0, 5.4, 5.8, 9.48, 9.8, 0.0, 0.0, 2.45, 9.17, 11.6, 10.8, 12.14, 12.14, 5.77, 5.96, 6.43, 6.43, 6.68, 6.68, 7.13, 7.13, 7.4, 7.83, 7.85, 8.51, 8.81, 8.81, 8.83, 8.85, 9.48, 10.13, 10.45, 11.12, 11.26, 11.99, 12.21, 12.72, 13.33, 14.19, 13.59, 14.42, -0.0, -2.5, -2.09, -1.9, -2.72, -3.21, -3.67, -4.18, -3.45, -4.6, -2.39, -3.11, -2.39, -2.39, -0.0, -0.0, -0.0, -0.0, -0.0, -0.0, -0.0, -0.0, -0.0, -0.0, 4.6, 4.6, 7.27, 7.27, 7.27, 7.59, 7.9, 7.9, 8.53, 8.22, 9.6, 10.73, 10.73, 9.33, 9.11, 9.97, 10.04, 7.0, -0.0, -7.3, -6.22, -0.0, 2.47, 6.69, 8.87, 6.97, 6.22, -0.0, -12.33, -17.88, -12.64, 0.0, 0.0, 0.0, 12.96, 5.8, 4.24, 7.93, -0.0, 0.0, 0.0, 6.7, 10.79, 9.17, 8.85, 8.85, 5.77, 5.96, 6.43, 6.43, 6.43, 6.68, 7.13, 7.13, 7.13, 7.83, 7.83, 8.51, 8.51, 8.81, 8.83, 8.95, 8.2, 9.17, 9.16, 10.15, 11.83, 12.81, 11.97, 11.99, 11.87, 12.39, 5.8, 13.86, -0.0, -2.72, -2.28, -2.13, -3.44, -5.4, -6.2, -6.59, -6.83, -7.06, -7.9, -6.44, -5.06, -3.82, -0.0, -0.0, 2.28, 3.39, -0.0, -0.0, -0.0, -0.0, -0.0, -0.0, 4.6, 4.6, 7.27, 7.27, 7.27, 7.9, 8.53, 10.4, 10.4, 10.4, 10.0, 9.83, 9.83, 9.39, 9.39, 10.28, 10.18, 12.79, 14.3, 14.22, 16.44, 15.36, 10.61, 8.68, 8.93, 6.52, 6.69, 5.51, -4.12, -14.51, -16.09, -8.85, 0.0, 13.41, 13.41, -0.0, -0.0, 7.44, 4.52, 13.41, 0.0, 0.0, 12.39, 10.12, 9.8, 9.8, 5.77, 5.96, 5.96, 6.43, 6.43, 6.68, 7.13, 7.13, 7.13, 7.83, 7.83, 8.51, 8.51, 8.81, 8.81, 8.49, 7.82, 7.85, 8.37, 9.3, 11.21, 12.05, 11.68, 10.43, 10.12, 11.6, -12.96, -7.44, -3.36, -0.0, -0.0, -2.45, -3.82, -6.7, -6.76, -7.59, -7.59, -8.58, -8.15, -7.9, -5.95, -4.8, -0.0, 1.39, 5.0, 5.2, 3.25, -0.0, -0.0, -0.0, -0.0, -0.0, 3.39, 3.53, 4.4, 5.9, 9.3, 8.93, 10.18, 11.62, 11.18, 10.73, 10.73, 10.73, 10.28, 10.28, 10.28, 10.96, 11.61, 12.56, 15.84, 19.08, 23.86, 26.27, 20.85, 15.36, 11.38, 8.28, 6.52, 4.67, -0.0, -6.14, -13.59, -13.41, -13.86, -13.41, 13.41, 12.96, -0.0, 5.6, 7.44, -0.0, -0.0, 12.96, 13.86, 15.2, 14.75, 14.75, 5.77, 5.96, 5.96, 6.43, 6.43, 6.68, 7.13, 7.13, 7.36, 7.8, 8.08, 8.22, 8.51, 8.81, 8.81, 8.46, 8.1, 7.73, 7.02, 8.21, 9.8, 9.62, 10.02, 10.75, 12.27, 13.88, -0.0, -4.1, -0.0, -0.0, -0.0, -2.82, -5.2, -5.98, -7.26, -7.9, -8.59, -8.24, -8.24, -7.9, -6.98, -5.0, -1.58, -0.0, 2.52, 4.48, 3.11, -0.0, -0.0, -0.0, -0.0, -0.0, 3.39, 3.53, 5.95, 6.17, 8.94, 10.38, 11.62, 11.18, 11.18, 11.18, 10.73, 11.18, 10.28, 10.18, 10.41, 11.84, 12.3, 12.98, 15.09, 18.33, 22.98, 24.15, 19.08, 17.43, 12.64, 10.73, 7.4, 6.8, 4.95, -0.0, -6.6, -12.72, -13.86, -13.41, 0.0, 0.0, 0.0, 12.07, 8.85, 4.24, -0.0, -0.0, -0.0, 14.75, 14.75, 14.75, 6.0, 6.2, 6.2, 6.68, 6.68, 6.68, 7.13, 7.36, 7.36, 7.8, 8.08, 8.49, 8.51, 8.51, 8.81, 8.74, 8.38, 7.93, 8.66, 9.6, 10.43, 8.2, 7.44, 7.69, 10.63, 12.79, 14.3, 9.17, -0.0, -0.0, -0.0, -3.68, -6.45, -6.97, -8.22, -7.9, -9.08, -9.08, -7.9, -6.98, -5.0, -5.0, -3.07, -1.33, 1.11, 3.39, 2.6, -0.0, -0.0, -0.0, -0.0, 2.6, 3.39, 3.53, 3.39, 6.2, 9.08, 11.62, 11.62, 7.59, 7.27, 8.93, 10.6, 11.18, 11.18, 10.6, 11.03, 11.71, 12.04, 13.7, 14.84, 20.12, 19.71, 5.85, 4.4, 12.52, 15.19, 10.41, 6.64, 5.98, 7.0, 6.52, 2.65, -0.0, -6.4, -13.41, 13.41, 14.3, -14.75, 0.0, 12.07, -0.0, -0.0, -0.0, -0.0, 14.3, 14.75, 14.75, 6.0, 6.0, 6.0, 6.68, 6.68, 6.68, 7.13, 7.36, 7.36, 7.8, 8.08, 8.49, 8.49, 8.51, 8.81, 8.42, 8.31, 8.66, 8.94, 10.34, 11.26, 9.48, 6.94, 6.21, 8.38, 10.94, 12.03, 13.15, 12.96, -0.0, -0.0, -5.2, -5.2, -6.45, -8.22, -9.3, -8.22, -8.22, -7.26, -5.98, -5.2, -3.68, -3.19, -1.44, -0.0, -0.0, -0.0, -0.0, -0.0, -0.0, -0.0, 2.6, 2.6, 3.53, 3.39, 5.95, 7.9, 10.12, 12.96, 2.97, 2.28, 7.27, 10.4, 11.62, 11.18, 11.18, 11.03, 10.84, 11.28, 12.35, 12.39, -0.0, -26.02, -13.15, -5.69, -6.64, 12.52, -0.0, -0.0, 4.01, 5.15, 4.95, 4.95, 4.95, 2.43, -0.0, -0.0, -3.47, -6.8, -12.65, -12.96, -13.41, -0.0, -0.0, 10.12, 14.3, 14.3, 14.3, 6.0, 6.0, 6.0, 6.2, 6.68, 6.68, 7.13, 7.36, 7.36, 7.8, 7.8, 8.49, 8.49, 8.78, 8.11, 8.42, 8.58, 8.58, 9.37, 9.37, 10.48, 10.3, 8.85, 6.94, 7.43, 8.91, 9.48, 11.88, 11.99, 12.96, -0.0, -0.0, -8.22, -7.9, -7.9, -7.9, -7.9, -6.71, -5.98, -5.98, -3.68, -3.68, -3.19, -3.19, -3.19, -1.39, -0.0, -0.0, -0.0, -0.0, -0.0, 2.19, 2.6, 2.6, 3.25, 5.7, 6.17, 7.54, 10.79, 8.22, 0.0, 0.0, 11.18, 11.62, 7.9, 10.8, 11.45, 11.87, 11.18, 11.18, 11.02, -17.11, -25.93, -27.62, -15.69, -13.41, -13.41, -12.96, -0.0, -0.0, 3.36, 5.31, 4.66, 3.93, 5.81, 4.05, -0.0, -0.0, -0.0, -5.09, -13.86, -13.41, -13.86, 13.86, 14.3, 14.3, 13.86, 13.86, 6.0, 6.0, 6.0, 6.0, 6.68, 6.68, 7.13, 7.13, 7.36, 7.8, 7.8, 8.49, 8.49, 8.78, 8.38, 8.69, 8.25, 8.74, 8.74, 9.08, 9.43, 10.18, 10.38, 9.17, 7.19, 7.96, 8.83, 8.59, 11.16, 13.41, 12.96, 12.96, -12.52, -8.22, -7.9, -7.59, -6.2, -5.0, -5.0, -4.32, -1.91, -1.91, -1.84, -1.84, -3.53, -3.39, -3.68, -1.76, -1.62, -0.0, -0.0, 2.45, 2.1, 2.1, 2.49, 5.7, 5.7, 5.9, 6.45, 11.2, 11.18, 0.0, 9.83, -0.0, 5.2, 8.53, 10.04, 11.71, 12.07, 11.62, 13.41, 14.84, -21.9, -26.65, -26.29, -20.16, -17.88, -15.65, -10.12, -6.0, -0.0, -0.0, 2.2, 4.24, 6.6, 6.6, 2.09, 2.43, 3.69, 4.95, -0.0, -13.99, -12.79, -10.43, 13.41, 13.86, 13.86, 13.86, 6.0, 6.0, 6.0, 6.46, 6.68, 6.68, 7.13, 7.13, 7.13, 7.8, 7.8, 8.49, 8.49, 8.78, 8.38, 8.42, 7.99, 8.42, 8.74, 8.74, 9.08, 9.8, 10.22, 9.97, 8.91, 7.96, 7.96, 8.44, 9.17, 9.17, 12.96, 12.96, 12.52, -12.07, -8.22, -5.0, -3.39, -3.39, -2.71, -2.19, -1.84, -0.0, -0.0, -0.0, -2.1, -4.8, -5.2, -3.82, -1.93, -1.62, -0.0, -0.0, -0.0, 2.37, 4.15, 4.8, 3.25, 3.11, 5.7, 8.22, 8.53, 8.53, -0.0, -0.0, -0.0, 6.7, 8.85, 11.2, 12.96, 12.52, 11.91, 14.3, 16.99, -23.67, -25.87, -25.02, -21.61, -17.88, -11.03, -9.67, -6.0, -2.72, -0.0, 2.28, 4.52, 4.95, 4.18, 6.6, 7.59, 7.82, 6.31, -15.69, -12.65, -11.06, 0.0, 14.3, 13.86, 13.86, 6.25, 6.25, 6.25, 6.72, 6.72, 6.68, 7.13, 7.13, 7.13, 7.8, 8.08, 8.49, 8.49, 8.78, 8.38, 8.11, 7.99, 7.99, 7.99, 8.31, 8.66, 9.02, 9.1, 9.48, 8.97, 8.61, 7.96, 7.78, 8.3, 9.17, 9.17, 8.85, 8.85, 12.07, 12.07, -0.0, -0.0, -0.0, -0.0, -0.0, -0.0, -0.0, 1.64, 2.1, -0.0, -3.53, -6.2, -4.6, -3.65, -1.62, -1.76, -0.0, -0.0, 1.28, 3.07, 4.8, 4.8, 3.25, 5.63, 7.27, 10.8, 8.94, 7.9, 2.6, -0.0, 6.45, 8.53, 12.71, 12.96, 12.96, 12.79, 13.41, 14.47, 12.01, -14.22, -27.27, -24.59, -19.67, -9.83, -8.8, -8.22, -6.67, -2.81, -0.0, -0.0, 2.43, 7.0, 8.68, 6.8, 4.66, 4.18, 2.34, -17.43, -15.69, -10.75, 14.3, 14.3, 14.3, 6.04, 6.04, 6.25, 6.72, 6.72, 6.72, 7.4, 7.4, 7.13, 7.83, 8.08, 8.08, 8.49, 8.38, 8.38, 8.11, 8.11, 7.73, 7.73, 8.05, 8.38, 8.73, 8.73, 9.48, 9.02, 8.97, 7.96, 7.96, 8.24, 8.85, 8.85, 8.53, 8.53, 8.53, 12.07, 11.62, 8.22, 5.0, 3.53, -0.0, -0.0, 1.91, 3.07, 3.25, 3.65, -0.0, -10.28, -7.27, -3.65, -1.69, -0.0, -0.0, -0.0, 1.45, 2.95, 3.68, 5.0, 2.6, 5.29, 7.27, 9.58, 9.58, 7.9, 4.48, 4.32, 6.94, 13.15, 12.52, 12.07, 12.96, 14.3, 14.3, 13.41, 12.87, 5.64, -0.0, -16.75, -19.22, -13.86, -10.14, -10.0, -7.44, -4.98, -0.0, -0.0, 2.72, 6.6, 7.0, 4.3, 2.09, 2.09, 4.3, -4.01, -16.99, -14.79, -11.06, 0.0, 0.0, 6.04, 6.04, 6.04, 6.72, 6.72, 7.16, 7.16, 7.4, 7.4, 7.83, 7.83, 8.08, 8.49, 8.38, 8.38, 8.11, 7.85, 7.73, 7.73, 8.05, 8.38, 8.1, 8.44, 9.1, 9.06, 8.72, 8.67, 8.61, 8.24, 8.15, 8.53, 8.53, 8.53, 8.53, 11.62, 11.62, 10.4, 7.9, 6.2, 2.6, 2.19, 1.84, 1.58, 3.82, 3.82, 5.7, -6.64, -5.06, -1.45, -0.0, -0.0, 1.76, 1.69, 1.69, 1.76, 3.39, 2.93, 5.2, 6.7, 7.9, 8.73, 8.94, 7.24, 4.65, 6.21, 10.37, 13.15, 12.52, 11.03, 11.03, 13.72, 14.6, 13.86, 13.01, 3.47, -0.0, -3.6, -11.53, -18.78, -16.99, -11.91, -7.27, -6.44, -0.0, -0.0, -0.0, 2.63, 2.89, -0.0, 2.15, 2.09, 4.81, 6.16, -0.0, -16.99, -12.01, 0.0, 0.0, 6.04, 6.04, 6.5, 6.5, 6.72, 7.16, 7.16, 7.16, 7.4, 7.83, 7.83, 7.83, 8.78, 8.38, 8.38, 8.11, 8.15, 7.73, 7.78, 7.34, 7.67, 7.67, 8.44, 8.44, 8.37, 8.76, 8.72, 8.67, 8.85, 9.42, 9.5, 10.04, 10.35, 10.4, 11.03, 11.62, 11.03, 9.3, 7.9, 4.8, 3.98, 3.98, 3.53, 2.95, 4.4, 6.97, 3.53, -0.0, 1.28, 3.07, 5.0, 4.6, 3.25, 3.25, 3.98, 3.98, 5.06, 6.2, 7.26, 6.98, 6.7, 7.9, 6.21, 5.98, 9.66, 10.01, 11.99, 14.3, 9.58, 6.95, 8.38, 12.45, 16.09, 16.99, -11.7, -9.89, -2.78, -0.0, -8.2, -19.73, -21.01, -11.2, -9.3, -6.94, -0.0, -0.0, -0.0, 3.47, 3.58, 2.89, 2.89, 5.81, 8.68, 3.07, -0.0, -17.43, 0.0, 0.0, 6.08, 6.08, 6.76, 6.76, 6.76, 7.44, 7.44, 7.44, 7.85, 7.57, 7.83, 8.11, 8.51, 8.51, 8.11, 8.15, 7.48, 7.78, 7.34, 7.67, 7.67, 8.44, 8.44, 8.44, 8.79, 8.76, 9.17, 8.85, 9.36, 9.36, 9.42, 10.19, 10.04, 11.45, 11.4, 11.18, 11.18, 10.0, 8.58, 6.44, 6.44, 5.52, 5.52, 5.52, 5.52, 7.24, 6.21, 4.8, 5.1, 6.2, 6.7, 6.42, 6.42, 5.52, 5.52, 5.52, 6.17, 8.22, 6.7, 6.98, 7.9, 7.26, 7.54, 9.3, 9.66, 10.4, 10.79, 12.58, 12.07, 5.46, 6.01, 10.84, 15.65, 22.8, -20.38, -15.33, -8.51, -0.0, -2.72, -13.91, -21.48, -19.22, -12.96, -12.72, -9.8, -0.0, 6.4, 7.93, 10.12, 6.6, 4.66, 6.6, 7.82, 9.77, 3.79, -0.0, 16.99, 16.99, 6.08, 6.08, 6.53, 6.53, 7.19, 7.19, 7.19, 7.85, 7.85, 7.85, 7.85, 7.85, 8.11, 8.53, 8.15, 7.87, 7.78, 7.78, 7.4, 7.73, 8.15, 8.44, 8.44, 8.79, 8.79, 9.17, 8.85, 8.53, 9.76, 8.22, 8.85, 10.01, 10.19, 11.09, 11.45, 11.62, 11.18, 10.96, 9.96, 8.58, 7.27, 7.59, 7.59, 7.59, 7.59, 7.9, 7.9, 8.24, 7.59, 7.9, 8.38, 7.27, 7.59, 7.59, 7.27, 7.27, 7.9, 7.9, 7.59, 8.03, 9.42, 9.08, 9.3, 8.94, 10.79, 10.96, 10.08, 11.28, 12.52, 12.07, 10.28, 9.2, 13.44, 18.78, -29.06, -18.66, -10.73, -5.0, -5.15, -9.2, -16.39, -17.88, -15.18, -14.3, -14.75, -10.75, 11.06, 13.99, 13.57, 9.8, -0.0, -0.0, 6.6, 7.82, 7.82, -0.0, 16.09, 16.09, 6.29, 6.29, 6.53, 6.53, 6.94, 7.19, 7.19, 7.59, 7.59, 7.85, 7.85, 7.85, 8.53, 8.53, 8.17, 7.89, 7.82, 7.85, 8.15, 8.15, 8.15, 8.15, 8.49, 8.49, 8.49, 8.85, 9.23, 8.85, 9.34, 9.84, 7.65, 8.53, 9.82, 10.48, 11.61, 11.46, 11.62, 11.02, 10.6, 9.2, 8.82, 8.38, 8.38, 8.38, 8.73, 9.2, 9.2, 9.2, 9.6, 8.38, 8.03, 8.03, 8.73, 8.38, 8.82, 9.2, 9.2, 8.38, 8.82, 9.2, 8.93, 9.2, 10.4, 9.6, 10.96, 10.84, 10.52, 10.08, 11.28, 12.58, 10.04, 9.3, 11.51, 16.09, 28.16, -23.37, -14.47, -11.03, -11.16, -10.12, -13.39, -16.99, -15.69, -13.76, -15.69, -16.54, 16.09, 15.2, 14.3, 9.48, -0.0, -0.0, -0.0, 6.4, 7.36, 8.43, -0.0, -0.0, 6.29, 6.29, 6.29, 6.53, 7.22, 7.22, 7.87, 7.87, 7.87, 7.87, 7.87, 7.87, 8.24, 8.24, 7.89, 7.9, 8.21, 7.85, 7.85, 8.15, 8.49, 8.85, 8.85, 8.85, 8.85, 9.2, 9.23, 9.23, 9.62, 10.18, 9.67, 9.3, 9.46, 10.48, 11.09, 11.51, 11.62, 11.62, 11.06, 10.18, 9.6, 9.2, 8.93, 8.93, 9.6, 9.2, 9.2, 9.2, 9.6, 9.6, 9.2, 9.58, 9.2, 8.82, 8.82, 9.2, 9.2, 8.8, 9.2, 9.6, 11.2, 10.0, 10.0, 10.6, 9.97, 10.41, 10.41, 10.52, 11.28, 12.14, 11.2, 11.2, 12.52, 15.2, 23.69, -23.19, -18.78, -15.65, -13.86, -13.88, -11.38, -14.79, -16.54, -15.19, -15.69, -7.2, 0.0, 12.65, 14.3, 11.99, -0.0, -5.6, -0.0, 4.24, 6.0, 7.59, 8.43, 8.43, 6.56, 6.56, 6.56, 6.56, 6.96, 7.22, 7.6, 7.6, 7.6, 7.87, 7.6, 7.6, 8.24, 8.24, 8.24, 8.21, 8.21, 8.21, 7.85, 8.53, 8.85, 8.85, 8.85, 8.85, 9.2, 9.2, 9.56, 9.56, 9.92, 10.66, 10.8, 10.4, 10.62, 10.4, 11.28, 11.53, 11.62, 11.62, 11.06, 10.75, 10.32, 9.45, 9.45, 9.86, 9.45, 9.89, 9.46, 9.89, 9.75, 10.18, 10.18, 10.6, 10.18, 9.75, 10.18, 9.75, 9.33, 9.33, 9.33, 9.75, 8.8, 10.4, 9.6, 10.84, 10.6, 10.6, 10.41, 10.96, 10.96, 11.84, 11.87, 13.44, 14.3, 15.65, 19.67, 20.82, 20.56, -17.39, -16.99, -17.88, -16.54, -15.19, -15.65, -15.2, -14.84, -6.6, 4.66, 12.27, 13.41, 12.52, -0.0, -8.85, -5.6, -0.0, 4.1, 5.8, 8.85, 8.85, 6.31, 6.31, 6.56, 6.96, 6.96, 6.96, 7.6, 7.6, 7.6, 7.89, 7.89, 7.89, 7.95, 8.24, 7.93, 7.61, 8.21, 8.21, 8.53, 8.53, 8.53, 8.53, 9.2, 9.5, 9.5, 9.5, 9.84, 10.19, 9.92, 10.29, 11.02, 11.27, 11.03, 10.78, 10.96, 11.11, 11.18, 11.18, 11.11, 11.09, 10.41, 10.05, 9.63, 9.54, 9.54, 9.76, 9.74, 10.18, 9.89, 10.18, 10.18, 10.18, 9.75, 10.18, 9.75, 9.33, 9.33, 9.33, 9.33, 9.75, 9.89, 8.6, 10.52, 10.14, 10.08, 10.6, 9.97, 10.52, 11.18, 10.96, 12.96, 12.79, 15.34, 16.99, 19.22, 17.43, 17.43, 19.67, -20.82, -18.24, -18.65, -14.39, -11.6, -9.17, -13.41, 0.0, 11.6, 12.52, 12.52, 11.6, 9.17, -0.0, -9.17, -5.8, -0.0, 4.1, 8.31, 8.31, 6.31, 6.31, 6.31, 6.96, 6.96, 6.96, 7.33, 7.61, 7.89, 7.61, 7.61, 7.61, 8.24, 7.93, 7.61, 7.91, 8.21, 8.53, 8.53, 8.53, 8.84, 8.84, 9.16, 9.16, 9.16, 9.49, 9.49, 9.82, 9.82, 10.15, 10.48, 11.09, 11.27, 11.33, 11.02, 11.13, 11.18, 11.18, 11.18, 11.12, 10.47, 10.47, 9.75, 10.75, 9.11, 9.54, 10.18, 10.18, 10.18, 10.58, 10.58, 10.58, 10.14, 10.58, 9.7, 9.7, 9.7, 9.29, 9.74, 9.74, 9.74, 9.29, 10.28, 9.7, 10.52, 10.6, 9.54, 10.28, 10.73, 10.73, 11.62, 12.96, 15.65, 18.78, 20.8, 16.96, 13.59, 16.99, -15.8, -19.17, -18.21, -14.84, -11.99, -5.4, -0.0, 9.17, 11.99, 12.3, 12.3, 12.3, 11.6, -0.0, -9.48, -9.48, -0.0, -0.0, 4.24, 6.0, 6.31, 6.31, 6.31, 6.7, 6.96, 6.96, 7.61, 7.61, 7.61, 7.61, 7.61, 7.93, 7.93, 7.93, 7.93, 7.91, 7.91, 8.84, 8.84, 8.84, 8.84, 9.16, 9.16, 9.16, 9.49, 9.49, 9.82, 9.82, 10.15, 10.15, 10.48, 10.8, 11.37, 11.11, 11.33, 11.05, 11.14, 11.18, 11.18, 10.73, 10.68, 10.66, 10.04, 11.28, 9.33, 9.6, 10.2, 10.18, 10.18, 10.58, 9.75, 9.75, 9.75, 10.14, 9.7, 9.26, 9.29, 9.29, 9.39, 9.83, 9.83, 9.39, 10.73, 9.39, 9.83, 10.73, 10.73, 10.28, 10.73, 11.18, 11.18, 12.96, 14.75, 17.43, 23.67, 12.65, 6.6, -15.2, -17.59, -16.09, -14.13, -12.65, -10.75, -6.6, -0.0, 6.0, 12.39, 13.86, 13.41, 12.72, 11.99, 9.48, -0.0, -9.48, -9.48, -0.0, 6.0, 4.24, 6.31, 6.31, 6.31, 6.7, 6.7, 7.24, 7.24, 7.61, 7.61, 7.61, 7.61, 7.93, 7.93, 7.93, 8.22, 8.22, 8.22, 8.22, 8.84, 8.84, 9.16, 9.42, 9.42, 9.42, 9.73, 9.73, 10.04, 9.82, 10.15, 10.48, 10.48, 10.8, 11.09, 11.37, 11.11, 11.33, 11.05, 11.14, 11.18, 10.73, 10.73, 10.23, 10.22, 9.6, 11.28, 9.42, 10.47, 10.32, 9.89, 9.89, 9.46, 9.46, 9.03, 9.29, 9.29, 9.29, 8.85, 8.94, 9.39, 9.39, 9.83, 9.39, 7.6, 9.83, 10.28, 10.28, 9.83, 10.28, 10.41, 11.18, 11.18, 11.62, 13.86, 15.65, 19.67, -8.48, -13.39, -16.09, -14.3, -13.44, -12.72, -11.16, -9.48, -6.0, -0.0, 12.39, 14.3, 14.75, 14.3, 13.86, 13.86, 12.39, -0.0, -13.86, -9.48, -0.0, -0.0, 6.0, 6.31, 6.31, 6.31, 6.31, 6.97, 6.97, 6.97, 7.33, 7.33, 7.61, 7.61, 7.93, 7.93, 8.22, 8.22, 8.22, 8.22, 8.22, 8.52, 8.52, 9.42, 9.42, 9.42, 9.73, 9.73, 9.73, 10.04, 10.04, 10.35, 10.65, 10.48, 10.4, 10.68, 10.95, 11.18, 11.33, 11.49, 11.02, 11.14, 10.73, 10.73, 10.28, 10.28, 10.23, 9.79, 10.91, 9.85, 9.75, 9.21, 9.21, 8.79, 9.11, 9.11, 8.87, 8.87, 8.87, 8.49, 8.94, 8.94, 9.39, 9.39, 9.39, 10.73, 9.83, 9.83, 10.28, 9.83, 10.73, 9.97, 11.18, 11.62, 11.4, 12.58, 13.86, 13.99, -20.56, -27.19, -24.39, -13.44, -12.3, -14.75, -10.43, -6.2, -0.0, 9.48, 13.86, 14.3, 14.75, 14.75, 14.3, 14.3, 14.3, 13.86, -13.86, -13.41, 12.96, 12.96, 12.96, 6.31, 6.31, 6.31, 6.58, 6.97, 6.97, 6.97, 7.33, 7.61, 7.61, 7.61, 7.93, 7.93, 8.22, 7.9, 7.9, 8.22, 8.52, 8.52, 8.78, 8.78, 9.08, 9.08, 9.73, 9.73, 9.73, 10.04, 10.04, 10.35, 10.65, 10.26, 10.53, 10.68, 10.95, 11.18, 11.11, 11.33, 11.49, 11.14, 11.14, 10.73, 10.73, 10.28, 10.28, 10.73, 10.68, 10.12, 9.42, 8.99, 9.21, 9.21, 8.73, 8.89, 8.89, 8.43, 8.49, 8.05, 8.49, 8.94, 8.94, 9.39, 8.94, 8.49, 9.83, 9.83, 9.83, 10.28, 10.28, 10.28, 11.18, 11.4, 10.6, 12.58, 12.52, 14.75, 14.39, -0.0, -31.74, -26.72, -17.59, -13.28, -0.0, -0.0, -0.0, -0.0, 6.2, 11.53, 11.9, 13.99, 13.57, 13.57, 14.3, 13.86, 13.41, 12.96, 12.96, 12.96, 12.96, 6.33, 6.33, 6.58, 6.58, 6.58, 6.97, 6.97, 6.97, 7.61, 7.61, 7.61, 7.93, 8.22, 8.22, 7.9, 7.9, 7.9, 8.52, 8.52, 8.78, 9.08, 9.08, 9.08, 9.37, 9.37, 9.86, 9.67, 9.67, 9.97, 10.26, 10.26, 10.53, 10.79, 10.95, 10.95, 11.18, 11.33, 11.49, 11.49, 11.14, 11.18, 10.73, 10.73, 10.73, 10.73, 11.18, 10.68, 9.79, 9.35, 8.9, 8.9, 8.9, 8.9, 8.94, 8.49, 8.49, 8.05, 8.05, 8.49, 8.87, 8.87, 8.87, 8.87, 10.73, 9.83, 9.54, 9.75, 10.73, 10.28, 11.18, 11.02, 10.18, 11.03, 12.83, 13.41, 14.42, 14.88, 20.32, 27.59, 19.28, 10.8, 8.8, -0.0, -5.8, -6.6, -0.0, 4.52, 10.12, 11.9, 11.9, 9.8, 12.39, 12.39, -13.41, -12.96, 12.96, 12.96, 12.96, 6.33, 6.33, 6.33, 6.33, 6.33, 6.97, 6.71, 6.98, 6.98, 7.61, 7.61, 7.61, 8.22, 8.22, 7.9, 7.9, 7.9, 8.19, 8.52, 8.78, 9.08, 9.08, 9.08, 9.37, 9.58, 9.58, 9.86, 10.13, 9.97, 10.26, 10.26, 10.53, 10.79, 10.79, 10.95, 11.18, 11.36, 11.49, 11.49, 11.14, 11.14, 10.73, 10.73, 10.73, 10.73, 10.73, 10.73, 10.28, 9.83, 9.83, 9.39, 9.39, 8.94, 8.94, 8.94, 8.49, 8.49, 8.05, 8.0, 8.43, 8.43, 8.87, 8.87, 8.49, 10.73, 9.54, 9.54, 9.39, 10.28, 10.52, 11.28, 9.75, 10.6, 12.39, 13.41, 13.75, 14.79, 16.39, 20.83, 22.37, 21.72, 17.87, -8.2, -15.02, -12.01, -4.81, -0.0, 8.18, 8.18, 9.48, 10.12, 11.2, 12.96, 12.96, 12.96, 12.52, 12.52, 12.52, 6.33, 6.33, 6.33, 6.33, 6.33, 6.33, 6.71, 6.98, 6.98, 7.32, 7.32, 7.61, 8.22, 8.22, 7.9, 7.9, 7.9, 8.19, 8.19, 8.78, 9.08, 9.08, 9.08, 9.37, 9.37, 9.58, 9.86, 10.13, 9.97, 10.26, 10.26, 10.53, 10.79, 10.79, 11.03, 11.18, 11.36, 11.36, 11.49, 11.49, 11.14, 11.14, 11.18, 10.73, 10.73, 10.73, 10.73, 10.28, 10.28, 9.83, 9.83, 9.39, 9.39, 8.94, 8.94, 8.49, 8.44, 8.0, 8.0, 8.0, 8.24, 8.24, 8.67, 9.32, 8.94, 10.28, 9.83, 8.94, 9.83, 9.55, 9.75, 10.18, 11.46, 12.52, 13.41, 13.72, 14.75, 15.61, 16.96, 17.19, 21.61, 21.81, -23.8, -21.63, -16.09, -9.17, -0.0, -0.0, 4.52, -0.0, 13.41, 12.07, 12.52, 12.52, 12.52, 12.07, 12.07, 12.07, 6.33, 6.33, 6.33, 6.33, 6.61, 6.61, 6.61, 6.98, 6.98, 6.98, 7.32, 7.32, 7.6, 7.9, 7.9, 7.9, 7.9, 7.9, 8.19, 8.19, 9.08, 9.08, 9.08, 9.37, 9.37, 9.37, 9.67, 9.67, 9.97, 10.26, 10.26, 10.53, 10.79, 10.79, 11.03, 11.18, 11.18, 11.36, 11.49, 11.05, 11.14, 11.14, 11.14, 11.18, 10.73, 10.73, 10.73, 10.28, 10.28, 10.28, 9.83, 9.39, 9.39, 8.94, 8.44, 8.44, 8.44, 8.0, 8.0, 7.85, 7.85, 8.24, 8.24, 8.67, 8.87, 9.83, 9.39, 9.39, 9.83, 9.83, 10.14, 11.02, 11.62, 12.52, 12.96, 13.41, 14.3, 15.08, 15.61, 15.49, 16.79, 18.33, -29.06, -26.11, -19.93, -11.0, -3.79, -0.0, -0.0, -0.0, 12.52, 12.52, 12.07, 12.07, -12.07, -12.07, -12.07, -12.07, 6.33, 6.33, 6.61, 6.61, 6.61, 6.61, 6.61, 6.98, 6.98, 6.98, 7.32, 7.6, 7.6, 7.9, 7.9, 7.9, 7.9, 7.9, 8.19, 8.19, 8.45, 9.08, 9.08, 9.37, 9.37, 9.67, 9.67, 9.67, 9.97, 10.26, 10.26, 10.53, 10.53, 10.79, 10.95, 10.95, 11.18, 10.89, 10.89, 11.05, 11.05, 11.14, 11.14, 11.14, 11.14, 10.68, 10.73, 10.28, 10.28, 10.28, 9.83, 9.83, 9.39, 8.9, 8.9, 8.44, 8.44, 7.85, 7.85, 7.85, 7.42, 7.63, 7.95, 8.22, 8.6, 10.08, 9.83, 9.39, 9.83, 9.83, 10.28, 10.73, 11.62, 12.07, 12.52, 13.41, 13.86, 14.3, 14.31, 14.65, 15.2, 20.12, -24.49, -28.16, -23.29, -13.91, -5.64, -0.0, -0.0, 12.52, 12.52, 12.07, 11.62, -11.18, -11.18, -10.73, -10.73, -10.73, 6.61, 6.61, 6.34, 6.34, 6.34, 6.34, 6.34, 6.7, 6.98, 6.98, 6.98, 7.6, 7.6, 7.6, 7.9, 7.9, 7.9, 7.9, 8.19, 8.19, 8.19, 8.73, 8.73, 9.01, 9.01, 9.3, 9.3, 9.67, 9.97, 9.97, 10.26, 10.53, 10.53, 10.68, 10.68, 10.95, 10.68, 10.68, 10.89, 10.89, 11.02, 11.02, 11.02, 11.14, 11.14, 11.13, 10.68, 10.68, 10.24, 10.24, 9.79, 9.79, 9.34, 8.9, 8.9, 8.44, 8.29, 7.85, 7.85, 7.85, 7.63, 7.21, 7.53, 7.81, 7.81, 8.48, 8.82, 9.39, 9.39, 9.64, 9.64, 10.08, 11.18, 11.91, 12.35, 12.96, 13.41, 13.41, 13.75, 14.18, 15.04, 16.54, -9.0, -24.78, -23.5, -13.45, -0.0, -0.0, -11.62, -12.52, -12.07, -11.62, -10.73, -10.28, -9.83, -9.39, -9.39, -9.39, 6.34, 6.34, 6.34, 6.34, 6.34, 6.34, 6.34, 6.7, 6.7, 6.7, 6.98, 7.27, 7.6, 7.6, 7.6, 7.9, 7.9, 8.19, 8.19, 8.19, 8.19, 8.49, 8.73, 9.01, 9.01, 9.3, 9.3, 9.3, 9.58, 9.58, 10.26, 10.4, 10.4, 10.27, 10.27, 10.52, 10.68, 10.68, 10.89, 10.89, 10.89, 11.02, 11.02, 11.02, 11.02, 11.13, 10.68, 10.68, 10.24, 10.24, 10.24, 9.79, 9.35, 8.9, 8.77, 8.33, 8.29, 7.85, 7.85, 7.85, 7.63, 7.21, 7.21, 7.2, 6.99, 8.48, 8.82, 9.26, 9.21, 9.13, 8.43, 8.43, 8.43, 11.02, 12.07, 12.52, 12.96, 12.79, 13.72, 14.18, 14.18, 14.75, 15.65, -11.27, -20.7, -9.66, -3.47, -0.0, -0.0, -11.18, -11.62, -11.62, -11.18, 10.73, -10.28, -9.83, -9.83, -9.83, 6.34, 6.34, 6.34, 6.34, 6.34, 6.34, 6.7, 6.7, 6.7, 6.98, 6.98, 6.98, 7.3, 7.6, 7.6, 7.9, 8.19, 8.19, 8.19, 8.19, 8.19, 8.49, 8.49, 8.79, 9.01, 9.3, 9.3, 9.58, 9.58, 9.86, 9.7, 10.0, 10.0, 10.27, 10.27, 10.43, 10.68, 10.68, 10.68, 10.89, 10.89, 10.84, 10.84, 11.02, 11.02, 11.02, 10.56, 10.56, 10.68, 10.24, 10.24, 9.68, 9.68, 8.77, 8.77, 8.33, 8.29, 7.85, 7.63, 7.63, 7.63, 7.21, 7.21, 6.8, 6.6, 6.88, 9.26, 9.26, 8.91, 8.43, 8.23, 7.27, 7.27, 7.87, 11.02, 11.62, 12.52, 12.96, 13.41, 13.72, 14.16, 14.11, 7.93, -8.74, -19.28, -12.34, -7.2, -0.0, -0.0, -10.73, -11.18, -10.0, -8.22, -7.9, -10.73, -9.83, -9.83, -9.83, 6.63, 6.63, 6.63, 6.63, 6.98, 6.98, 6.98, 6.98, 6.98, 6.98, 6.98, 6.98, 6.98, 7.3, 7.3, 7.59, 8.19, 8.19, 8.19, 7.86, 8.49, 8.49, 8.79, 8.79, 8.79, 9.09, 9.09, 9.4, 9.4, 9.7, 9.7, 10.0, 10.0, 10.27, 10.27, 10.43, 10.68, 10.68, 10.68, 10.68, 10.89, 10.89, 10.84, 10.84, 11.02, 11.02, 10.56, 10.56, 10.56, 10.12, 10.12, 9.68, 9.68, 8.77, 8.77, 8.33, 8.14, 8.06, 7.63, 7.63, 7.21, 7.21, 6.94, 6.8, 6.6, 6.99, 9.03, 9.29, 9.74, 9.26, 9.33, 8.23, 6.17, 6.17, 9.55, 11.02, 12.07, 12.52, 12.96, 12.96, 13.41, 13.15, -0.0, -22.69, -21.64, -13.91, -9.92, -7.19, -3.68, -9.2, -11.18, -10.6, -10.4, -10.4, -10.73, -10.28, -10.28, -10.28, 6.35, 6.35, 6.35, 6.63, 6.98, 6.98, 6.98, 6.98, 6.98, 6.98, 6.98, 6.98, 6.98, 6.98, 7.59, 7.59, 7.59, 7.86, 8.15, 8.15, 8.15, 8.15, 8.79, 8.79, 9.09, 9.09, 9.4, 9.4, 9.4, 9.7, 9.7, 10.0, 10.0, 10.27, 10.43, 10.43, 10.43, 10.68, 10.68, 10.68, 10.68, 10.89, 10.84, 10.84, 10.84, 11.02, 11.02, 10.56, 10.56, 10.12, 10.12, 9.68, 9.21, 8.77, 8.56, 8.14, 8.14, 8.06, 7.63, 7.63, 7.21, 7.21, 6.94, 6.94, 6.6, 6.6, 7.31, 7.6, 10.28, 10.28, 10.18, 10.14, 9.97, 8.55, 8.55, 9.96, 11.46, 12.07, 12.52, 12.52, 12.79, 12.39, -17.02, -25.59, -25.45, -16.1, -12.16, -10.37, -8.53, -9.67, -11.18, -11.18, -10.0, -10.0, -10.73, -10.28, -10.28, -10.28, 6.35, 6.35, 6.35, 6.35, 6.69, 6.69, 6.69, 6.69, 6.69, 6.69, 6.69, 6.97, 6.97, 6.97, 7.27, 7.59, 7.59, 7.88, 8.15, 8.15, 8.15, 8.44, 8.44, 9.09, 9.09, 9.09, 9.4, 9.4, 9.7, 9.7, 10.0, 10.0, 10.27, 10.15, 10.15, 10.43, 10.43, 10.43, 10.68, 10.68, 10.68, 10.68, 10.84, 10.84, 10.84, 10.84, 10.84, 10.35, 10.35, 10.56, 10.12, 9.92, 8.99, 8.99, 8.56, 8.14, 8.14, 8.06, 7.63, 7.63, 7.35, 6.94, 6.94, 6.94, 6.82, 6.7, 7.4, 8.05, 10.28, 10.73, 10.73, 10.73, 10.73, 10.28, 9.54, 8.8, 9.96, 11.46, 12.52, 12.27, 10.73, 9.48, -10.41, -23.21, -26.45, -15.99, -11.88, -9.2, -9.6, -10.84, -11.18, -11.62, -11.62, -10.6, -11.18, -9.83, -9.83, -9.83, 6.35, 6.35, 6.35, 6.35, 6.35, 6.69, 6.69, 6.69, 6.69, 6.97, 6.97, 6.97, 6.97, 6.97, 6.97, 7.27, 7.55, 7.55, 7.55, 7.88, 8.44, 8.44, 8.44, 8.73, 8.73, 9.02, 9.02, 9.7, 9.7, 9.7, 10.0, 10.0, 10.27, 10.15, 10.15, 10.43, 10.43, 10.43, 10.43, 10.68, 10.68, 10.6, 10.18, 10.41, 10.41, 10.41, 10.41, 10.35, 10.35, 10.35, 9.92, 9.92, 9.06, 8.99, 8.56, 8.56, 8.14, 8.06, 7.35, 7.35, 7.35, 7.35, 7.35, 7.35, 6.82, 6.18, 7.07, 8.17, 8.44, 10.65, 10.65, 10.73, 10.73, 10.28, 10.28, 9.55, 9.55, 11.02, 11.62, 11.21, 8.85, 8.94, 6.64, -14.86, -26.79, -23.64, -14.79, -11.03, -10.6, -10.84, -11.62, -11.62, -11.62, -11.03, -11.18, -10.28, -10.28, -10.28, 6.08, 6.08, 6.35, 6.35, 6.35, 6.35, 6.97, 6.97, 6.97, 6.97, 6.97, 6.97, 6.97, 6.97, 7.27, 7.55, 7.55, 7.55, 7.55, 7.85, 7.85, 8.19, 8.73, 8.73, 9.02, 9.02, 9.32, 9.32, 9.32, 9.6, 10.0, 10.0, 10.27, 9.74, 9.74, 9.74, 10.43, 10.43, 10.43, 10.43, 10.68, 10.18, 10.18, 10.18, 10.41, 10.41, 10.35, 10.35, 10.35, 10.35, 9.92, 9.49, 9.06, 8.99, 8.56, 8.56, 7.89, 7.89, 7.76, 7.35, 7.35, 7.35, 7.35, 7.03, 6.82, 6.52, 7.07, 7.6, 8.24, 9.97, 9.97, 10.62, 10.14, 9.83, 9.64, 9.13, 8.43, 9.75, 10.73, 11.4, 9.17, 9.8, 7.0, -3.16, -22.51, -26.89, -18.65, -14.61, -11.06, -11.18, -11.62, -11.03, -11.45, -11.03, -11.18, -11.18, -11.18, -11.18, 5.72, 5.72, 6.08, 6.08, 6.64, 6.64, 6.97, 6.97, 6.97, 6.97, 6.97, 6.97, 7.27, 7.27, 7.27, 7.27, 7.55, 7.85, 7.85, 7.85, 7.85, 8.15, 8.15, 9.02, 9.02, 9.02, 9.32, 9.32, 9.32, 9.6, 9.6, 9.6, 9.86, 9.86, 9.74, 9.74, 10.01, 10.43, 10.43, 10.43, 10.43, 10.18, 10.18, 10.18, 10.18, 10.18, 10.35, 10.35, 10.35, 10.35, 9.92, 9.49, 9.49, 8.72, 8.3, 8.3, 7.89, 7.89, 7.76, 7.76, 7.35, 7.35, 7.35, 7.42, 7.2, 6.45, 6.32, 7.44, 8.37, 9.97, 9.97, 10.18, 9.7, 9.26, 8.72, 8.72, 7.51, 8.72, 10.14, 10.79, 10.73, 11.5, 9.22, -2.87, -19.71, -26.89, -19.47, -15.53, -12.39, -11.62, -11.62, -11.03, -11.45, -11.45, -11.62, -11.62, -11.62, -11.62, 5.72, 5.72, 6.0, 6.35, 6.35, 6.35, 6.35, 6.67, 6.67, 6.95, 6.95, 6.95, 6.95, 6.95, 7.27, 7.27, 7.58, 7.85, 7.85, 7.85, 8.15, 8.15, 8.15, 8.45, 8.82, 9.32, 9.32, 9.32, 9.6, 9.6, 9.6, 9.6, 9.86, 9.86, 9.86, 9.86, 10.01, 10.01, 10.01, 10.01, 10.01, 10.18, 10.18, 10.18, 10.18, 10.18, 10.08, 10.08, 10.08, 10.08, 9.66, 9.24, 9.24, 8.72, 8.3, 8.3, 7.89, 7.89, 7.76, 7.76, 7.76, 7.42, 7.42, 7.42, 7.2, 6.45, 6.32, 7.44, 8.0, 8.56, 9.35, 11.18, 10.28, 9.39, 9.39, 9.26, 9.21, 9.64, 10.28, 11.4, 11.62, 12.72, 10.43, -0.0, -18.97, -27.5, -19.67, -16.09, -14.3, -13.41, -12.52, -12.07, -12.52, -12.96, -12.07, -12.07, -12.07, -12.07, 5.72, 5.72, 6.0, 6.0, 6.35, 6.35, 6.35, 6.65, 6.95, 6.95, 6.95, 6.95, 6.95, 6.95, 7.25, 7.25, 7.25, 7.25, 7.51, 8.15, 8.15, 8.15, 8.45, 8.45, 8.45, 8.76, 9.14, 9.32, 9.6, 9.6, 9.6, 9.6, 9.86, 9.86, 9.86, 9.86, 10.01, 10.01, 10.01, 10.01, 10.01, 10.25, 10.18, 10.18, 10.18, 10.18, 10.18, 10.08, 10.08, 10.08, 9.66, 9.24, 9.24, 8.82, 8.72, 8.3, 7.89, 7.89, 7.76, 7.76, 7.42, 7.42, 7.42, 7.42, 7.42, 6.45, 6.87, 6.87, 7.76, 8.48, 9.21, 11.18, 10.28, 10.73, 9.39, 9.83, 9.83, 9.83, 10.28, 10.73, 11.91, 12.04, 10.12, 3.07, -12.61, -27.5, -21.9, -16.09, -14.3, -13.75, -12.35, -12.14, -12.07, -12.52, -12.52, -12.07, -12.07, -12.07, 5.34, 5.34, 5.72, 5.72, 5.72, 6.06, 6.06, 6.65, 6.65, 6.95, 6.95, 6.95, 7.25, 7.25, 7.25, 7.51, 7.51, 7.8, 7.8, 7.8, 7.8, 8.45, 8.45, 8.45, 8.76, 8.76, 8.76, 9.14, 9.6, 9.6, 9.6, 9.6, 9.86, 9.86, 9.86, 9.86, 10.01, 10.01, 10.01, 10.01, 10.25, 10.25, 10.18, 10.18, 10.18, 10.18, 10.18, 10.18, 10.08, 9.66, 9.66, 9.24, 9.24, 8.82, 8.72, 8.3, 8.3, 7.89, 7.6, 7.42, 7.42, 7.42, 7.42, 7.42, 7.07, 6.45, 6.32, 6.87, 7.44, 8.37, 8.91, 9.34, 9.39, 11.62, 9.39, 9.83, 9.83, 9.83, 10.28, 10.73, 11.62, 12.71, 11.09, 7.59, -0.0, -20.03, -24.14, -18.78, -15.65, -14.6, -13.15, -12.45, -10.79, -11.2, -8.85, 12.52, 12.52, 12.52, 5.34, 5.34, 5.72, 5.72, 5.72, 6.06, 6.06, 6.65, 6.65, 6.95, 6.95, 6.95, 7.25, 7.25, 7.25, 7.51, 7.51, 7.8, 7.8, 7.8, 7.8, 8.45, 8.45, 8.45, 8.76, 8.76, 8.76, 9.14, 9.6, 9.6, 9.6, 9.6, 9.86, 9.86, 9.86, 9.86, 10.01, 10.01, 10.01, 10.01, 10.25, 10.25, 10.18, 10.18, 10.18, 10.18, 10.18, 10.18, 10.08, 9.66, 9.66, 9.24, 9.24, 8.82, 8.72, 8.3, 8.3, 7.89, 7.6, 7.42, 7.42, 7.42, 7.42, 7.42, 7.07, 6.45, 6.32, 6.87, 7.44, 8.37, 8.91, 9.34, 9.39, 11.62, 9.39, 9.83, 9.83, 9.83, 10.28, 10.73, 11.62, 12.27, 10.73, 8.58, 5.98, -0.0, -16.75, -20.8, -19.22, -15.93, -14.42, -13.28, -9.8, -9.48, -5.6, 12.07, 12.07, 12.07]}, {"header": {"dx": 0.06612293990616946, "dy": 0.0552356325346848, "nx": 98, "ny": 59, "la1": 35.046912555036876, "la2": 31.78801023549047, "lo1": -121.43107172385933, "lo2": -114.95102361305473, "refTime": "2026041518", "parameterCategory": 1, "parameterNumber": 3}, "data": [-12.93, -12.77, -12.59, -12.51, -12.27, -11.69, -10.92, -10.12, -9.57, -8.15, -6.42, -5.18, -4.87, -3.14, -1.5, -1.64, -8.22, -11.18, -11.03, -11.87, -10.79, -10.79, -8.22, -7.9, -6.2, -6.45, -10.04, -10.41, -10.8, -11.71, -12.14, -12.96, -12.52, -10.96, -9.55, -8.43, -8.05, -7.51, -6.64, -5.7, -3.65, -4.15, -6.97, -7.54, -7.19, -8.46, -8.64, -7.13, -6.51, -4.87, -2.02, 0.0, 2.5, 8.05, 11.06, 11.06, 10.02, 7.76, 5.99, 5.81, 5.81, 6.6, 6.6, 6.4, 4.38, 3.93, 3.93, 3.47, 3.69, 3.49, 3.9, 3.79, 2.21, 2.21, 2.21, 2.21, 0.0, 0.0, 0.0, -3.58, -6.4, -11.99, -11.6, -8.85, -8.53, 0.0, 0.0, 0.0, 5.0, 10.0, 12.14, 13.01, 13.44, 13.81, 13.81, 13.15, 11.92, 12.46, -12.53, -12.38, -12.21, -12.39, -12.27, -12.0, -10.99, -10.58, -10.12, -9.27, -7.43, -7.34, -5.8, -4.39, -4.1, -3.82, -5.52, -11.45, -12.07, -11.4, -12.72, -10.79, -10.79, -9.17, -5.95, -6.2, -8.22, -10.04, -11.71, -12.27, -14.03, -13.86, -12.52, -9.64, -7.47, -7.67, -6.8, -8.3, -8.72, -8.23, -8.85, -8.05, -8.1, -8.53, -9.21, -10.1, -8.85, -8.05, -6.2, -2.43, 0.0, 2.5, 6.8, 8.43, 9.73, 10.02, 8.68, 5.99, 5.99, 5.81, 5.81, 4.05, 4.52, 4.38, 4.38, 3.81, 3.93, 3.47, 3.69, 3.9, 3.59, 2.0, 0.0, 0.0, 0.0, 0.0, 0.0, 0.0, 0.0, -3.58, -6.4, -11.99, -11.6, -8.85, -8.53, 0.0, 0.0, 0.0, 5.0, 10.0, 12.14, 13.01, 13.44, 13.81, 13.81, 13.15, 11.92, 12.46, -12.53, -12.53, -12.38, -12.01, -12.13, -11.9, -11.34, -10.99, -10.25, -8.97, -8.67, -6.67, -5.8, -5.4, -5.2, -4.08, -4.58, -8.22, -12.07, -12.96, -11.4, -11.87, -10.41, -11.16, -7.69, -7.59, -8.93, -10.18, -10.84, -11.62, -14.75, -15.2, -14.3, -10.84, -7.89, -8.0, -8.06, -8.48, -9.33, -10.4, -9.82, -9.08, -9.36, -9.69, -9.5, -8.58, -6.43, -4.98, 0.0, 0.0, 6.8, 7.82, 9.49, 9.49, 9.44, 8.43, 5.99, 5.99, 5.18, 3.58, 4.05, 3.93, 4.38, 4.38, 4.38, 3.93, 4.05, 1.94, 1.94, 2.0, 0.0, 0.0, -1.94, -1.89, -2.09, -2.43, 0.0, 0.0, -3.47, -6.6, -12.79, -11.99, -11.6, -12.07, -11.62, -10.4, -5.0, -2.19, 6.71, 12.04, 14.22, 14.31, 14.31, 14.31, 13.15, 11.16, 11.6, 12.39, -12.67, -12.53, -12.38, -12.21, -12.01, -11.9, -11.64, -10.98, -10.25, -9.48, -8.85, -7.78, -6.63, -5.2, -5.77, -6.76, -6.16, -7.73, -10.4, -11.91, -11.18, -11.18, -10.6, -8.94, -8.53, -10.79, -9.2, -9.54, -9.83, -11.18, -12.07, -13.86, -15.65, -15.65, -12.14, -10.41, -10.08, -9.96, -9.75, -10.62, -10.73, -10.12, -9.69, -8.85, -8.15, -6.43, -3.81, 0.0, 2.43, 5.48, 7.59, 7.82, 7.59, 7.59, 6.6, 6.6, 4.05, 3.58, 3.58, 3.47, 4.05, 3.93, 4.52, 4.38, 3.81, 4.05, 3.79, 3.39, 1.93, 0.0, 0.0, -1.73, -5.49, -7.32, -7.93, -7.13, -2.89, 0.0, 0.0, -13.86, -13.41, -13.41, -12.96, -11.62, -11.18, -9.67, -6.7, 3.68, 11.06, 13.86, 15.11, 14.31, 13.44, 12.33, 10.79, 10.47, 12.04, 12.52, -12.67, -12.53, -12.38, -12.21, -12.01, -12.13, -11.53, -10.98, -10.3, -9.59, -8.53, -8.22, -7.24, -5.2, -5.54, -6.76, -7.56, -7.56, -8.93, -10.8, -12.3, -12.52, -11.62, -11.03, -9.96, -10.8, -12.14, -11.71, -11.18, -10.28, -10.58, -10.6, -11.51, -12.35, -14.3, -14.3, -14.75, -12.39, -9.85, -10.92, -11.6, -10.37, -8.73, -6.88, -5.46, -3.36, -1.77, 0.0, 1.83, 4.18, 4.66, 4.52, 4.52, 4.66, 4.66, 4.05, 3.58, 3.58, 3.58, 3.47, 3.93, 5.46, 6.2, 6.6, 4.05, 4.54, 4.67, 4.01, 4.45, 2.5, 0.0, 0.0, -3.59, -13.95, -14.53, -12.04, -7.69, 0.0, 0.0, -13.41, -12.96, -12.96, -12.07, -11.18, -10.6, -9.67, 5.4, 11.62, 13.41, 15.2, 14.22, 12.58, 12.14, 10.79, 9.17, 9.48, 12.79, 12.52, -12.67, -12.53, -12.53, -12.38, -12.21, -11.63, -11.53, -10.91, -10.63, -9.96, -8.93, -8.27, -7.95, -5.2, -3.92, -5.0, -7.27, -8.22, -7.9, -8.22, -8.22, -5.4, -9.48, -13.41, -12.52, -12.07, -11.45, -11.71, -12.96, -12.07, -9.7, -9.2, -7.27, -6.42, -8.53, -9.8, -13.41, -12.52, -10.73, -11.18, -12.22, -12.27, -9.8, -5.63, -5.63, -3.58, -1.83, 0.0, 0.0, 0.0, 1.96, 1.96, 2.28, 2.35, 2.09, 1.83, 1.83, 3.58, 3.58, 3.47, 3.81, 6.0, 6.6, 5.99, 6.34, 4.67, 4.79, 4.54, 4.67, 5.53, 6.93, 12.07, 17.39, 0.0, -12.96, -15.69, -13.41, -9.17, -12.96, -11.6, -12.07, -11.62, -11.18, -11.62, -11.28, 0.0, 12.07, 13.41, 14.75, 14.3, 12.86, 13.01, 12.33, 9.96, 7.19, 11.5, 12.96, 12.42, -12.28, -12.28, -12.14, -11.99, -11.82, -11.63, -11.37, -11.16, -10.55, -9.92, -9.27, -8.27, -7.65, -5.92, -4.75, -4.8, -5.92, -6.76, -7.27, -5.95, 0.0, 5.2, 5.0, 0.0, 0.0, -5.2, -11.62, -12.07, -12.52, -10.73, -11.18, -8.8, -6.95, -4.66, -3.53, 5.8, 12.52, 9.48, -0.0, -9.55, -12.52, -12.3, -10.12, -4.81, 0.0, 0.0, 0.0, 0.0, 0.0, 0.0, 0.0, 0.0, 0.0, 0.0, 0.0, 0.0, 1.77, 1.77, 1.77, 3.36, 3.68, 6.0, 6.8, 4.42, 4.54, 4.54, 4.67, 2.28, 2.57, 2.94, 9.2, 15.74, 16.66, 16.54, 16.12, 12.01, 0.0, -13.41, -13.41, -9.48, -11.62, -11.62, -12.07, -12.07, -11.45, 8.85, 13.86, 14.3, 14.3, 13.41, 13.28, 12.33, 10.3, 8.59, 7.44, 12.3, 12.52, 12.07, -12.28, -12.28, -12.14, -11.99, -11.99, -11.82, -11.05, -11.16, -10.55, -9.92, -8.93, -8.65, -8.22, -7.56, -6.7, -5.21, -5.0, -5.64, -6.44, -4.8, 0.0, 5.0, 4.48, 5.4, 3.53, 2.49, 5.7, 7.59, 0.0, -11.18, -11.18, -11.28, -9.3, -4.8, 0.0, 9.3, 10.28, 10.0, 5.6, -0.0, 0.0, 0.0, 5.6, 4.38, 8.18, 8.93, 7.0, 5.09, 2.43, 0.0, 0.0, 0.0, 0.0, 0.0, 0.0, 0.0, 0.0, 0.0, 0.0, 1.83, 3.82, 4.24, 2.5, 4.95, 5.09, 4.67, 2.4, 2.21, 0.0, 3.07, 8.0, 12.96, 14.39, 15.34, 14.9, 14.31, 12.79, 0.0, 0.0, -0.0, -4.38, -12.52, -12.07, -11.87, -11.2, 0.0, 13.01, 13.41, 12.96, 12.96, 12.71, 11.12, 8.38, 8.87, 10.47, 12.39, 12.07, 11.62, -12.28, -12.28, -12.14, -12.14, -11.99, -11.44, -11.26, -10.68, -10.41, -9.82, -9.21, -9.52, -9.62, -9.3, -8.49, -8.49, -7.27, -6.71, -7.27, -5.52, 0.0, 0.0, 5.2, 7.24, 7.54, 7.51, 6.64, 7.87, 4.6, -7.59, -10.28, 0.0, 7.59, 6.2, 5.75, 8.23, 10.73, 10.41, 11.62, 11.18, 12.52, 12.14, 11.2, 11.99, 11.44, 10.82, 9.66, 10.19, 6.34, 4.18, 2.89, 0.0, 0.0, -1.96, -1.96, -1.72, -1.96, 0.0, 0.0, 0.0, 0.0, 0.0, 0.0, 0.0, 3.16, 0.0, 0.0, 0.0, 0.0, 0.0, 0.0, 3.24, 5.23, 11.06, 12.27, 11.9, 11.53, 10.79, 13.41, -0.0, -4.52, -11.99, -14.3, -9.8, -3.96, 0.0, 7.19, 12.3, 12.14, 12.58, 11.6, 10.37, 8.1, 9.48, 11.99, 12.39, 11.62, 12.07, -12.28, -12.28, -11.75, -11.75, -11.61, -11.44, -11.26, -10.68, -10.68, -10.41, -10.19, -10.19, -8.59, -8.27, -9.3, -10.0, -9.48, -9.09, -7.9, 0.0, 4.8, 7.59, 11.03, 11.03, 10.6, 9.3, 8.18, 8.8, 7.59, 3.25, 9.6, 11.18, 9.83, 9.6, 9.3, 8.22, 10.18, 8.94, 11.28, 12.14, 10.8, 11.2, 10.8, 9.97, 8.22, 8.1, 7.44, 5.63, 5.49, 5.49, 3.58, 0.0, -1.77, -3.81, -5.46, -5.63, -5.46, -3.82, -2.1, 0.0, 0.0, 0.0, 0.0, 0.0, 0.0, 0.0, -2.53, -2.28, -2.28, -2.81, -2.89, 0.0, 0.0, 0.0, 4.95, 6.2, 9.48, 8.22, 8.53, 14.3, -0.0, -11.7, -16.54, -11.06, -4.38, 0.0, 2.72, 6.2, 9.48, 10.79, 9.17, 7.51, 8.85, 10.12, 11.6, 12.04, 12.39, 12.52, -12.28, -12.28, -11.75, -11.75, -11.61, -11.61, -11.44, -10.88, -10.68, -10.45, -10.45, -10.45, -9.5, -8.19, -8.32, -8.94, -11.09, -11.2, 12.96, 13.41, 14.3, 13.99, 13.44, 12.52, 12.96, 10.73, 10.28, 9.83, 9.33, 8.18, 9.2, 9.03, 9.33, 8.43, 6.95, 8.22, 9.3, 10.79, 10.4, 10.41, 9.17, 9.77, 9.3, 10.04, 9.67, 8.22, 5.4, 3.44, 3.14, 1.66, 1.83, 0.0, -2.0, -4.42, -7.98, -10.59, -11.7, -9.8, -6.95, 0.0, 15.59, 15.99, 11.7, 3.9, 0.0, -4.91, -7.57, -8.0, -7.82, -6.44, -5.15, -5.48, -3.16, -3.9, 0.0, 0.0, 0.0, 0.0, 6.4, 13.59, 0.0, -13.99, -15.27, -16.12, -8.93, -2.89, 0.0, 0.0, 3.47, 3.25, 3.04, 6.94, 8.85, 8.85, 9.42, 11.6, 12.46, 12.83, -12.28, -12.28, -11.75, -11.75, -11.75, -11.61, -11.44, -11.26, -11.26, -11.05, -11.05, -10.73, -10.13, -8.54, -6.87, -6.09, -4.72, -2.37, 10.79, 13.15, 14.3, 14.75, 14.3, 15.65, 12.72, 11.87, 10.8, 8.49, 10.73, 10.18, 10.0, 8.93, 8.38, 8.03, 7.27, 8.38, 7.59, 9.08, 8.22, 8.53, 7.82, 8.53, 9.3, 11.03, 10.18, 8.23, 6.7, 5.6, 3.14, 0.0, 0.0, 2.34, 3.09, 0.0, -4.66, -11.53, -16.09, -18.78, -10.8, 13.15, 17.88, 17.62, 14.51, 10.05, 2.65, -2.72, -8.8, -16.12, -17.25, -14.57, -10.43, -8.66, -7.59, -9.12, -7.19, -7.59, -8.22, 0.0, 0.0, 7.0, 7.2, 0.0, -16.99, -17.88, -17.81, -13.59, -6.47, -2.98, 0.0, 0.0, 0.0, 2.82, 5.2, 5.2, 7.51, 10.12, 11.6, 12.3, -12.28, -12.28, -11.75, -11.75, -11.75, -11.61, -11.61, -11.44, -10.96, -10.96, -10.73, -10.73, -10.41, -9.48, -7.6, -6.3, -4.55, -2.13, 0.0, 0.0, 0.0, 0.0, 0.0, 14.75, 10.12, 6.2, 9.48, 12.96, 12.07, 9.54, 9.58, 9.3, 8.93, 8.03, 8.03, 7.27, 6.42, 5.75, 5.75, 5.75, 6.97, 9.3, 10.84, 9.83, 10.28, 10.18, 9.67, 8.53, 7.19, 7.44, 4.65, 6.9, 11.44, 13.59, 15.19, 16.39, 0.0, -22.8, -3.9, 10.04, 16.09, 16.15, 15.14, 13.39, 11.45, 6.36, 0.0, -15.02, -24.25, -24.69, -20.75, -18.02, -12.27, -10.4, -9.33, -11.62, -14.75, -16.09, -16.09, -11.7, 0.0, 0.0, 0.0, 0.0, -16.99, -17.81, -16.37, -12.64, -7.2, -6.4, -3.36, 0.0, 0.0, 0.0, 2.45, 6.67, 9.17, 11.5, -12.11, -11.88, -11.75, -11.75, -11.75, -11.75, -11.34, -11.16, -11.16, -10.96, -10.96, -10.41, -10.41, -10.09, -9.17, -7.48, -6.27, -4.71, -3.94, -2.72, -4.52, -4.52, -10.43, -14.75, 0.0, -0.0, 9.8, 13.86, 13.41, 12.52, 10.58, 10.18, 10.0, 8.43, 7.68, 6.95, 3.65, 4.6, 2.49, 5.95, 8.93, 9.97, 10.73, 10.28, 9.83, 10.28, 9.21, 9.3, 9.67, 10.41, 10.41, 11.45, 12.07, 12.07, 12.52, 10.73, 8.68, 0.0, 15.17, 12.03, 13.53, 15.43, 15.69, 16.12, 15.2, 13.76, 13.61, 5.94, -19.19, -22.8, -23.69, -21.68, -12.96, -0.0, -0.0, -0.0, -7.4, -7.8, -15.19, -16.99, -15.19, 0.0, 0.0, 10.75, 0.0, 0.0, -17.88, -18.33, -16.54, -9.17, -7.93, -7.9, -5.0, -3.04, 0.0, 2.54, 6.67, 9.17, -12.11, -12.11, -12.14, -12.14, -12.14, -11.75, -11.34, -11.72, -11.16, -11.16, -10.65, -10.65, -10.09, -10.09, -9.48, -8.54, -7.73, -6.57, -5.67, -5.62, -4.98, -6.88, -7.36, -10.12, -14.3, 0.0, 13.86, 13.86, 13.41, 13.41, 12.52, 9.97, 10.38, 9.2, 9.2, 7.27, 4.8, 2.39, 0.0, 6.95, 9.75, 10.73, 9.83, 9.33, 9.83, 9.83, 9.83, 10.28, 10.41, 10.84, 11.28, 11.18, 10.73, 9.39, 9.54, 8.93, 8.22, 8.31, 15.72, 17.43, 12.86, 12.96, 13.59, 14.03, 14.47, 14.9, 16.22, 14.13, 5.09, -20.12, -17.11, -0.0, 10.58, 9.77, 11.5, 11.7, 5.51, -0.0, -12.01, -16.99, -17.43, -16.99, -15.65, 0.0, 9.17, 13.59, 15.2, -0.0, -16.09, -11.7, -12.01, -11.99, -9.3, -7.51, -2.63, 2.54, 5.8, 5.8, -12.11, -12.11, -12.14, -12.14, -12.14, -12.14, -11.88, -11.34, -11.34, -10.87, -10.87, -10.35, -10.35, -10.43, -9.78, -9.48, -8.17, -7.34, -7.44, -6.65, -6.76, -6.0, -6.2, -6.6, -3.58, 0.0, 4.38, 12.39, 13.41, 13.41, 13.41, 12.07, 10.2, 10.52, 10.14, 8.22, 6.17, 2.49, 0.0, 10.28, 9.39, 9.39, 9.2, 9.33, 9.33, 9.39, 9.83, 10.28, 10.28, 10.28, 11.18, 11.62, 11.62, 10.18, 8.91, 8.18, 8.55, 9.67, 13.19, 15.34, 12.07, 11.62, 11.03, 11.45, 10.04, 10.79, 10.37, 9.12, 7.2, 0.0, -0.0, 14.66, 16.3, 18.21, 15.2, 18.33, 18.24, -0.0, -12.96, -17.39, -17.39, -18.33, -16.99, -14.75, 0.0, 7.9, 12.72, 12.96, 12.96, 0.0, 0.0, -12.58, -10.37, -8.05, -4.65, 0.0, 0.0, 0.0, -12.11, -12.51, -12.28, -12.14, -12.14, -12.14, -11.88, -11.88, -11.34, -11.07, -10.87, -10.35, -10.7, -10.43, -10.09, -9.8, -8.85, -8.1, -7.67, -7.25, -7.03, -6.42, -6.51, -4.87, -2.02, 0.0, 0.0, 0.0, 14.75, 14.11, 13.28, 12.96, 11.11, 11.18, 8.94, 9.39, 9.7, 10.73, 10.28, 9.83, 9.83, 8.94, 10.28, 8.67, 9.33, 9.83, 10.28, 10.28, 10.28, 10.28, 10.28, 10.73, 10.6, 10.18, 8.93, 8.55, 8.55, 8.93, 10.04, 11.6, 11.87, 10.6, 9.6, 7.59, 7.59, 7.27, 6.45, 6.45, 7.69, 12.33, 15.49, 14.08, 16.44, 20.85, 17.88, 18.21, 18.85, 19.67, -8.8, -13.28, -14.88, -16.91, -16.48, -15.2, -14.3, -11.62, 10.8, 11.6, 9.48, 9.8, -14.75, -13.41, -12.27, -9.17, -5.8, -5.4, -3.04, -3.04, -12.11, -12.51, -12.28, -12.28, -12.14, -12.14, -11.88, -11.88, -11.72, -11.44, -10.87, -10.94, -10.7, -10.7, -10.09, -9.48, -9.48, -8.78, -7.67, -6.67, -6.43, -6.0, -5.55, -4.24, -1.48, -1.77, -6.8, -4.81, 15.2, 14.99, 14.6, 13.28, 12.22, 10.7, 10.08, 9.4, 9.21, 9.2, 9.54, 9.33, 9.54, 9.54, 9.83, 10.28, 10.28, 10.28, 10.73, 10.28, 10.28, 10.28, 10.28, 10.28, 9.2, 9.2, 7.27, 7.27, 7.27, 7.59, 7.9, 7.9, 8.53, 8.22, 4.8, 0.0, 0.0, 3.11, 2.28, 2.49, 6.7, 13.99, 20.12, 18.26, 18.66, 21.46, 17.26, 15.61, 15.53, 17.43, 18.66, 18.78, 12.33, -0.0, -12.64, -13.41, -12.52, -12.52, 0.0, 11.6, 12.72, 11.9, 14.3, -12.96, -11.62, -10.04, -7.19, -9.17, -8.85, -8.85, -12.11, -12.51, -12.28, -12.28, -12.28, -12.14, -11.88, -11.88, -11.88, -11.44, -11.44, -10.94, -10.94, -10.7, -10.09, -10.58, -9.46, -9.17, -7.85, -6.53, -6.31, -7.32, -6.98, -6.0, -3.96, -6.2, -11.6, 0.0, 13.41, 13.59, 13.67, 12.79, 12.04, 10.8, 9.3, 8.47, 7.68, 8.07, 7.9, 8.58, 8.43, 9.55, 11.18, 11.18, 11.4, 10.18, 10.73, 10.28, 10.28, 10.28, 10.28, 10.28, 9.2, 9.2, 7.27, 7.27, 7.27, 7.9, 8.53, 5.2, 5.2, 5.2, 5.0, 0.0, 0.0, 0.0, 0.0, 0.0, 3.39, 6.4, 10.73, 14.22, 16.44, 19.2, 13.26, 13.02, 13.39, 15.2, 15.61, 16.54, 16.48, 9.67, -0.0, -8.85, -13.41, 0.0, 0.0, 12.96, 13.41, 11.16, 13.57, 0.0, -12.07, -11.62, -6.2, -10.12, -9.8, -9.8, -12.11, -12.51, -12.51, -12.28, -12.28, -12.14, -11.88, -11.88, -11.88, -11.44, -11.44, -10.94, -10.94, -10.7, -10.7, -9.8, -9.77, -9.16, -9.3, -8.37, -8.15, -9.27, -9.73, -9.13, -8.1, -5.8, -0.0, 11.16, 13.44, 12.96, 12.52, 12.27, 11.45, 10.04, 9.46, 7.59, 7.59, 6.44, 6.98, 6.58, 8.93, 9.6, 11.18, 11.09, 10.0, 10.4, 9.75, 10.28, 10.28, 9.83, 9.83, 10.28, 10.18, 10.6, 8.8, 7.87, 6.2, 5.95, 3.39, 0.0, 0.0, 0.0, 0.0, 0.0, 0.0, 0.0, 0.0, 2.19, 3.32, 4.71, 4.75, 4.77, 3.67, 2.39, 2.61, 6.14, 11.38, 13.8, 15.2, 16.33, 15.65, 15.36, 6.8, -0.0, -0.0, -0.0, 0.0, 0.0, 12.96, 11.2, 11.16, 13.41, 12.96, 0.0, 0.0, 0.0, 0.0, 0.0, -12.11, -12.51, -12.51, -12.28, -12.28, -12.14, -11.88, -11.88, -12.27, -11.99, -11.81, -11.16, -10.94, -10.7, -10.7, -10.41, -10.12, -9.84, -9.82, -10.03, -9.8, -11.76, -12.02, -10.75, -8.18, -3.47, 13.86, 12.3, 12.07, 11.62, 11.62, 11.28, 10.4, 9.97, 9.08, 7.9, 7.15, 6.87, 6.87, 7.9, 8.73, 10.0, 11.06, 12.07, 11.35, 11.21, 9.33, 10.28, 10.28, 10.28, 9.83, 10.28, 10.18, 10.6, 8.93, 8.23, 6.71, 4.15, 0.0, 0.0, 0.0, 0.0, 0.0, 0.0, 0.0, 3.39, 2.6, 2.37, 4.1, 4.87, 4.12, 0.0, -3.53, -6.59, -4.77, 0.0, 12.64, 14.3, 14.79, 13.59, 14.84, 15.65, 13.19, 4.24, -0.0, -0.0, -13.41, -13.41, -13.41, 0.0, 8.85, 12.72, 14.3, 13.41, 13.86, 0.0, 0.0, 0.0, -11.99, -12.39, -12.39, -12.14, -12.14, -12.14, -11.88, -12.27, -12.27, -11.99, -11.81, -11.52, -10.94, -10.94, -10.7, -10.76, -10.47, -10.81, -10.82, -11.2, -10.43, -11.72, -11.69, -11.53, -9.57, -6.4, 0.0, 9.17, 12.07, 12.07, 12.07, 11.03, 9.67, 9.3, 8.22, 7.9, 7.26, 7.26, 7.9, 8.73, 10.0, 10.0, 10.75, 12.0, 11.12, 10.18, 10.41, 9.83, 10.28, 10.28, 10.28, 10.41, 10.18, 10.6, 10.18, 9.3, 7.26, 4.65, 0.0, -7.59, -7.27, -5.95, -3.53, 0.0, 0.0, 3.53, 3.68, 2.93, 4.81, 5.48, 4.95, 0.0, -13.14, -23.42, -8.8, 0.0, 7.6, 15.62, 16.6, 14.94, 13.99, 15.2, 15.87, 15.2, 12.79, -0.0, 0.0, 0.0, -0.0, -12.07, 0.0, 13.41, 14.3, 14.3, 14.3, 0.0, 0.0, 0.0, -11.99, -11.99, -11.99, -12.14, -12.14, -12.14, -11.88, -12.27, -12.27, -11.99, -11.81, -11.52, -11.52, -10.94, -10.7, -11.01, -11.09, -10.82, -11.17, -11.14, -9.53, -9.48, -10.41, -11.38, -10.47, -8.51, -6.88, -4.38, 0.0, 12.52, 12.07, 10.4, 10.4, 9.67, 8.22, 6.97, 8.22, 8.22, 9.08, 9.97, 10.4, 11.03, 11.18, 11.53, 11.62, 11.18, 10.73, 9.39, 9.39, 10.28, 10.28, 10.41, 10.41, 10.6, 10.18, 8.93, 7.9, 8.1, 0.0, -8.91, -9.11, -7.27, -5.2, 0.0, 0.0, 0.0, 3.68, 2.71, 2.82, 2.06, 6.2, 17.88, -4.34, -4.38, -5.69, -6.64, 0.0, 15.2, 16.99, 16.05, 12.87, 14.84, 14.84, 14.84, 14.55, 13.86, 13.86, 13.88, 13.59, 8.43, -0.0, -0.0, 14.3, 14.3, 10.12, 0.0, 0.0, 0.0, -11.99, -11.99, -11.99, -12.39, -12.14, -12.14, -11.88, -12.27, -12.27, -11.99, -11.99, -11.52, -11.52, -11.29, -11.23, -11.01, -11.44, -11.44, -10.81, -10.81, -9.73, -8.59, -8.85, -10.41, -10.62, -10.02, -9.48, -7.13, -6.0, 0.0, 12.52, 12.07, 8.22, 7.9, 7.9, 7.9, 7.9, 8.94, 9.97, 9.97, 11.03, 11.03, 11.18, 11.18, 11.18, 11.09, 12.52, 11.18, 10.73, 11.18, 11.62, 10.96, 10.41, 10.41, 9.75, 8.55, 8.23, 9.42, 7.19, -8.22, -8.94, -9.39, 0.0, 0.0, 7.9, 5.4, 3.82, 3.96, 0.0, 0.0, 1.84, 11.41, -0.0, -5.52, -5.23, -0.0, -0.0, -0.0, 14.75, 15.2, 13.44, 13.28, 13.99, 13.75, 13.56, 14.18, 14.75, 14.75, 15.2, 15.27, -0.0, -0.0, -0.0, 0.0, 0.0, 0.0, 0.0, 0.0, -11.99, -11.99, -11.99, -11.99, -12.14, -12.14, -11.88, -11.88, -12.27, -11.99, -11.99, -11.52, -11.52, -11.29, -11.6, -11.36, -11.69, -10.76, -10.76, -10.47, -10.15, -9.4, -8.49, -9.17, -10.79, -10.23, -10.09, -10.3, -7.44, 0.0, 0.0, 0.0, -0.0, 8.22, 7.9, 7.59, 9.3, 10.0, 10.0, 10.79, 11.46, 11.46, 11.02, 11.02, 10.6, 10.18, 11.03, 10.58, 9.7, 9.83, 10.73, 12.27, 10.52, 10.52, 9.97, 8.55, 8.55, 7.87, 9.67, 5.6, 0.0, -9.39, 0.0, 10.73, 10.4, 8.53, 6.7, 2.93, 0.0, 0.0, 0.0, 4.95, -0.0, -7.61, -8.76, -4.03, -0.0, -0.0, 10.12, 11.99, 13.86, 13.86, 13.23, 12.72, 13.19, 13.19, 14.6, 14.55, 14.75, 14.84, 16.99, -4.66, -6.4, -10.43, 0.0, 0.0, 0.0, 0.0, -11.99, -11.99, -11.99, -11.75, -12.14, -12.14, -11.88, -11.88, -11.88, -11.99, -11.99, -11.52, -11.52, -11.29, -11.6, -11.01, -11.32, -11.01, -10.76, -10.76, -10.47, -9.8, -9.36, -8.97, -10.02, -10.23, -10.23, -9.84, -9.17, -9.17, 0.0, 0.0, 0.0, -0.0, 8.22, 10.0, 10.18, 10.18, 10.84, 10.96, 11.02, 11.62, 11.18, 11.18, 10.52, 9.6, 10.4, 9.55, 9.64, 9.7, 11.18, 11.18, 12.52, 11.84, 10.38, 9.6, 9.75, 9.33, 8.55, 8.22, 8.53, 8.53, 9.39, 9.83, 11.18, 10.04, 8.85, 5.6, 0.0, 0.0, -1.98, 0.0, 0.0, -4.73, -8.62, -8.34, -3.6, -0.0, 3.68, 6.45, 11.99, 13.59, 15.2, 13.67, 13.57, 14.84, 14.61, 13.19, 12.65, 13.03, 15.77, -5.23, -8.43, -11.06, -13.86, 0.0, 0.0, 0.0, -11.87, -11.87, -11.87, -11.61, -11.61, -12.14, -11.88, -11.88, -11.88, -11.99, -11.81, -11.52, -11.52, -11.29, -11.6, -11.23, -11.32, -11.32, -11.32, -11.09, -10.82, -10.52, -9.85, -9.48, -9.97, -9.69, -10.23, -10.37, -9.96, -9.17, -9.17, -8.85, -8.85, 0.0, 0.0, 11.62, 11.62, 11.18, 10.73, 10.28, 11.18, 11.62, 11.51, 10.52, 10.28, 10.6, 9.3, 9.2, 9.13, 9.7, 10.58, 11.18, 10.28, 10.2, 10.75, 9.6, 9.6, 9.75, 7.51, 7.27, 5.4, 6.71, 7.9, 10.41, 12.52, 9.67, 8.53, 2.54, 0.0, 0.0, -2.13, 0.0, 2.89, 12.01, 14.22, -0.0, -0.0, -0.0, -0.0, 4.4, 8.22, 11.12, 14.03, 12.96, 13.86, 14.55, 13.99, 13.02, 13.59, 13.99, 14.61, 16.37, -0.0, -5.23, -10.75, 0.0, 0.0, 0.0, -11.47, -11.47, -11.87, -11.61, -11.61, -11.61, -11.72, -11.72, -11.88, -11.44, -11.81, -11.81, -11.52, -11.6, -11.6, -11.23, -11.23, -10.96, -10.96, -10.73, -10.47, -10.18, -10.18, -9.48, -9.92, -9.97, -10.23, -10.23, -9.42, -8.85, -8.85, -8.53, -8.53, -8.53, 0.0, 0.0, 8.22, 10.0, 10.6, 10.73, 11.18, 11.46, 10.75, 9.75, 9.13, 10.73, -0.0, 7.27, 9.13, 10.14, 11.18, 10.73, 10.73, 10.18, 10.32, 11.03, 10.0, 10.41, 8.82, 7.27, 5.75, 5.75, 7.9, 11.21, 10.79, 10.41, 2.63, 0.0, 0.0, 0.0, 0.0, 0.0, 0.0, 5.15, 14.11, 19.67, 16.75, -0.0, -0.0, 1.69, 5.0, 8.93, 12.45, 12.52, 12.52, 13.59, 13.19, 13.99, 15.04, 14.6, 14.6, 15.04, 16.05, -0.0, -7.4, -11.06, -15.2, -15.2, -11.47, -11.47, -11.47, -11.61, -11.61, -11.34, -11.34, -11.72, -11.72, -11.44, -11.44, -11.81, -11.52, -11.6, -11.6, -11.23, -10.87, -10.96, -10.96, -10.73, -10.47, -10.12, -9.84, -9.85, -9.89, -9.59, -9.64, -9.69, -9.42, -9.5, -8.53, -8.53, -8.53, -8.53, 0.0, 0.0, 5.2, 7.9, 9.3, 10.41, 10.96, 11.02, 11.06, 11.45, 11.45, 8.55, 6.64, 8.43, 10.18, 10.28, 11.18, 10.58, 10.14, 10.14, 10.58, 10.18, 11.71, 10.4, 8.38, 7.9, 6.98, 6.71, 9.66, 11.62, 10.35, 7.78, 4.38, 0.0, -3.68, -3.68, -1.96, -2.09, 0.0, 3.25, 13.88, 18.33, 21.61, 15.38, -0.0, -0.0, 1.98, 7.27, 10.73, 12.07, 12.96, 13.41, 13.15, 14.47, 15.2, 15.05, 14.6, 14.42, 14.38, 16.09, -0.0, -12.01, -16.54, -16.54, -11.47, -11.47, -11.22, -11.22, -11.61, -11.34, -11.34, -11.34, -11.72, -11.44, -11.44, -11.44, -11.29, -11.6, -11.6, -11.23, -10.65, -10.96, -10.37, -10.68, -10.45, -10.45, -9.84, -9.84, -9.9, -9.56, -9.59, -9.64, -8.85, -8.24, -8.15, -6.7, -6.21, -5.2, -3.68, 0.0, 3.68, 6.2, 7.9, 9.6, 9.96, 9.96, 10.6, 10.32, 10.27, 9.3, 10.6, 10.28, 10.2, 10.75, 10.0, 9.2, 9.75, 9.75, 9.96, 9.96, 8.43, 9.3, 9.08, 8.73, 8.38, 7.9, 10.35, 9.97, 7.24, 7.51, 6.0, 0.0, -5.75, -6.95, -6.7, -4.98, 0.0, 0.0, 11.7, 16.48, 19.47, 17.43, 16.39, 3.95, -0.0, 5.6, 6.97, 10.41, 11.62, 14.3, 13.86, 13.88, 14.31, 14.47, 14.47, 14.53, 13.02, 15.34, 16.09, -0.0, -17.43, -17.43, -10.94, -10.94, -11.06, -11.06, -11.06, -11.16, -11.16, -11.16, -10.87, -11.07, -11.44, -11.23, -10.94, -10.94, -11.23, -10.65, -10.59, -10.37, -10.68, -10.45, -10.45, -9.84, -9.84, -9.84, -9.53, -9.56, -9.17, -8.85, -8.32, -8.32, -8.24, -7.28, -6.7, -3.82, -2.28, 0.0, 0.0, 5.0, 6.44, 8.58, 8.58, 9.2, 9.2, 9.2, 9.2, 9.66, 10.35, 9.6, 8.93, 9.3, 8.38, 8.03, 8.03, 9.2, 9.2, 9.2, 8.23, 8.22, 8.38, 8.73, 7.9, 9.08, 9.42, 6.97, 7.24, 5.2, 4.32, 3.14, 0.0, -8.18, -6.01, -2.71, 0.0, 0.0, 5.1, 9.2, 14.18, 14.75, 16.31, 13.91, 4.3, -0.0, -0.0, 4.24, 9.8, 14.3, 12.79, 11.9, 10.12, 13.19, 13.99, 13.19, 13.03, 12.22, 15.18, 16.09, 0.0, 0.0, -10.94, -10.94, -10.68, -10.68, -10.79, -10.79, -10.79, -10.87, -10.87, -10.87, -10.87, -10.87, -11.23, -10.35, -10.65, -10.3, -10.37, -10.37, -10.09, -9.84, -9.5, -9.84, -9.84, -9.53, -9.53, -9.17, -8.85, -8.53, -8.54, -8.22, -8.85, -7.51, -7.28, -4.75, -3.82, 0.0, 0.0, 2.19, 3.98, 6.44, 7.27, 7.59, 7.59, 7.59, 7.59, 7.9, 7.9, 6.87, 7.59, 7.9, 6.7, 7.27, 7.59, 7.59, 7.27, 7.27, 7.9, 7.9, 7.59, 6.42, 7.54, 7.26, 6.97, 6.71, 4.32, 2.19, 2.02, 2.82, 0.0, 0.0, 0.0, 4.6, 3.36, 0.0, -0.0, 6.22, 8.05, 10.0, 12.87, 15.33, 8.2, -0.0, -3.79, -0.0, -0.0, 10.75, 11.06, 4.66, 4.52, 9.8, 13.86, 14.3, 13.19, 13.03, 13.03, 15.65, 0.0, 0.0, -10.3, -10.3, -10.68, -10.68, -10.41, -10.79, -10.79, -10.51, -10.51, -10.87, -10.87, -10.87, -10.35, -10.35, -10.06, -9.71, -9.77, -9.16, -9.5, -9.5, -9.5, -9.5, -9.2, -9.2, -9.2, -8.85, -8.46, -8.85, -7.64, -8.44, -8.75, -8.53, -7.02, -5.99, -3.32, -1.91, 0.0, 1.84, 3.53, 5.52, 5.29, 6.7, 6.7, 6.7, 6.98, 5.52, 5.52, 4.6, 4.8, 6.7, 6.42, 6.42, 6.98, 6.7, 5.29, 5.52, 5.52, 6.7, 5.29, 5.52, 5.95, 5.52, 5.2, 4.8, 2.19, 2.71, 2.1, 2.02, 2.82, 3.14, 6.7, 6.2, 1.64, 0.0, 0.0, 3.9, 2.89, 3.68, 7.44, 10.12, 8.93, -0.0, -5.23, -9.17, -5.23, -0.0, 0.0, 0.0, 0.0, 9.48, 12.96, 13.41, 13.86, 12.79, 12.27, 12.65, 15.2, 15.2, -10.3, -10.3, -10.3, -10.68, -10.23, -10.23, -10.3, -10.3, -10.3, -10.3, -10.3, -10.3, -10.01, -10.01, -9.71, -9.12, -8.84, -9.16, -9.16, -9.5, -9.2, -8.85, -8.85, -8.85, -8.85, -8.49, -8.46, -8.46, -8.01, -6.48, -6.45, -6.97, -6.76, -5.99, -4.75, -1.64, 0.0, 0.0, 1.58, 3.39, 4.8, 4.6, 5.95, 5.95, 4.8, 4.6, 4.6, 4.6, 4.8, 4.8, 5.52, 5.75, 5.52, 5.29, 5.29, 4.6, 4.6, 4.4, 4.6, 4.8, 5.6, 5.0, 5.0, 3.53, 2.49, 2.6, 2.6, 2.1, 2.82, 3.04, 5.6, 5.6, 0.0, 0.0, 0.0, 11.6, -0.0, -0.0, -0.0, 3.47, 11.38, 7.4, -0.0, -7.6, -5.23, -14.39, -16.09, -8.43, 0.0, 6.0, 12.52, 11.2, 12.52, 12.72, 11.99, 12.65, 12.65, 12.65, -10.13, -10.13, -10.13, -10.13, -9.86, -10.23, -9.94, -9.94, -9.94, -10.3, -9.94, -9.94, -9.42, -9.42, -8.82, -8.84, -8.84, -8.84, -9.16, -8.53, -8.85, -8.85, -8.85, -8.85, -8.49, -8.49, -8.09, -8.09, -7.63, -6.56, -5.4, -5.2, -4.72, -5.2, -2.82, -1.44, 0.0, 0.0, 1.58, 3.07, 2.95, 4.05, 4.05, 4.23, 4.05, 2.82, 2.7, 2.82, 3.25, 3.39, 3.39, 3.53, 3.39, 3.25, 3.39, 3.25, 3.11, 3.11, 3.11, 3.25, 4.4, 5.2, 4.8, 2.71, 3.53, 3.53, 2.6, 2.19, 2.19, 2.37, 3.96, 3.36, 0.0, 0.0, 0.0, 5.2, 0.0, -5.8, -0.0, -0.0, 5.51, 7.6, -0.0, -0.0, -4.95, -13.19, -13.99, -8.18, 0.0, 0.0, 12.52, 8.85, 11.2, 12.52, 12.3, 11.6, 11.8, 11.8, -9.76, -9.76, -10.13, -9.86, -9.86, -9.86, -9.94, -9.94, -9.94, -9.71, -9.71, -9.71, -9.08, -8.82, -8.5, -8.78, -8.84, -8.84, -8.53, -8.53, -8.53, -8.53, -8.49, -8.15, -8.15, -8.15, -7.73, -7.28, -7.63, -7.12, -5.93, -4.33, -3.68, -2.94, -2.19, -1.23, 0.0, 0.0, 1.23, 1.39, 2.6, 3.77, 3.61, 2.39, 2.39, 1.22, 1.39, 1.45, 2.82, 3.39, 3.39, 3.39, 3.25, 3.39, 3.25, 3.11, 3.11, 3.11, 3.11, 3.25, 2.82, 2.46, 2.1, 1.69, 2.02, 3.53, 2.49, 2.1, 0.0, 2.19, 0.0, 2.13, 3.07, 0.0, 0.0, 0.0, 0.0, 0.0, 5.2, 6.08, 4.66, 7.2, 5.8, 9.17, -0.0, -12.96, -5.8, 0.0, 0.0, 5.8, 9.17, 12.96, 9.17, 11.6, 12.52, 12.3, 11.09, 11.09, -9.76, -9.76, -9.76, -9.86, -9.86, -9.86, -9.59, -9.37, -9.71, -9.37, -9.37, -9.37, -8.82, -8.5, -8.78, -8.52, -8.84, -8.53, -8.53, -8.53, -8.21, -8.21, -7.85, -7.85, -7.85, -7.46, -7.46, -7.02, -7.02, -6.53, -5.99, -4.75, -4.33, -2.61, -1.84, -1.01, 0.0, 0.0, 0.0, 1.11, 2.33, 2.33, 3.25, 3.07, 2.28, 2.39, 1.45, 1.45, 1.45, 1.76, 1.76, 1.76, 1.69, 1.76, 1.62, 1.62, 1.62, 1.33, 1.39, 1.39, 1.39, 1.33, 0.0, 1.62, 2.1, 3.53, 2.39, 0.0, 0.0, 0.0, 0.0, 0.0, 0.0, 0.0, -2.97, -5.65, -2.72, 0.0, 15.8, 11.5, 4.55, 4.95, 6.0, 10.8, 12.07, 9.17, 6.0, 4.1, 4.1, 4.1, 5.8, 13.41, 9.48, 9.48, 12.96, 12.96, 12.72, 11.99, -9.76, -9.76, -9.76, -9.5, -9.86, -9.86, -9.37, -9.37, -9.37, -9.37, -9.37, -8.5, -8.5, -8.5, -8.5, -8.52, -8.52, -8.21, -8.21, -8.21, -8.21, -7.85, -7.85, -7.85, -7.46, -7.46, -7.02, -7.02, -6.53, -6.53, -5.99, -5.4, -4.06, -3.42, -2.61, -1.7, -0.93, 0.0, 0.0, 0.0, 1.07, 1.18, 2.23, 2.82, 3.11, 2.13, 1.28, 1.45, 1.45, 1.76, 3.25, 3.25, 3.25, 1.69, 1.62, 1.54, 1.33, 1.33, 0.0, 0.0, 0.0, 0.0, 0.0, 0.0, 0.0, 0.0, 0.0, 0.0, 0.0, 0.0, 0.0, 0.0, 0.0, 0.0, -4.73, -18.97, -13.19, -0.0, 8.8, 12.07, 9.42, 8.43, 10.75, 13.19, 13.86, 11.99, 6.2, 0.0, 0.0, 4.24, 6.0, 9.48, 13.41, 9.48, 9.48, 12.96, 11.99, 12.72, -9.76, -9.76, -9.76, -9.5, -9.5, -9.66, -9.66, -9.37, -9.37, -9.37, -8.78, -8.5, -8.5, -8.5, -8.22, -8.22, -8.22, -8.22, -8.21, -8.21, -7.85, -7.54, -7.54, -7.54, -7.14, -7.14, -6.7, -7.02, -6.53, -5.99, -5.99, -5.4, -4.75, -4.06, -3.42, -2.61, -1.7, -0.93, 0.0, 0.0, 0.0, 1.02, 1.14, 2.13, 2.82, 2.83, 2.33, 2.95, 2.82, 2.82, 2.7, 2.7, 2.58, 1.33, 1.33, 1.33, 1.26, 0.0, 0.0, 0.0, 0.0, 0.0, 0.0, 0.0, 0.0, 0.0, 0.0, 0.0, 2.6, 0.0, 0.0, 0.0, 0.0, 0.0, 0.0, -25.45, -20.09, -0.0, -0.0, 3.36, 4.24, 7.44, 9.48, 11.99, 12.96, 6.2, 0.0, 0.0, 0.0, 0.0, 0.0, 6.2, 13.86, -0.0, 9.48, 13.41, 12.96, 11.99, -9.76, -9.76, -9.76, -9.76, -9.3, -9.3, -9.3, -9.02, -9.02, -8.78, -8.78, -8.5, -8.5, -8.22, -8.22, -8.22, -8.22, -8.22, -7.91, -7.91, -7.54, -7.54, -7.54, -7.14, -7.14, -7.14, -6.7, -6.7, -6.21, -5.68, -5.99, -5.2, -4.58, -3.91, -3.19, -2.61, -1.77, -1.84, -0.93, 0.0, 0.0, 0.0, 0.0, 1.02, 0.98, 2.42, 2.95, 3.25, 3.45, 3.45, 3.3, 2.28, 2.28, 1.11, 1.11, 1.11, 0.0, 0.0, 0.0, 0.0, 0.0, 0.0, 0.0, 0.0, 0.0, 0.0, 0.0, 0.0, 2.49, 0.0, 0.0, -2.28, -3.14, 0.0, 7.0, -0.0, -13.59, -12.19, -3.36, -4.1, -0.0, 10.43, 12.39, 13.41, 9.48, 0.0, 0.0, 0.0, 0.0, 0.0, 0.0, 0.0, 0.0, -0.0, -0.0, 0.0, 0.0, 0.0, -9.76, -9.76, -9.76, -9.58, -9.3, -9.3, -9.3, -9.02, -8.78, -8.78, -8.78, -8.5, -8.5, -8.22, -7.9, -7.9, -8.22, -7.91, -7.91, -7.61, -7.61, -7.26, -7.26, -7.14, -7.14, -7.14, -6.7, -6.7, -6.21, -5.68, -5.47, -4.92, -4.58, -3.91, -3.19, -3.42, -2.61, -1.77, -0.93, -0.93, 0.0, 0.0, 0.0, 0.0, 0.0, 0.97, 1.84, 2.83, 2.7, 1.84, 1.84, 1.94, 0.99, 0.99, 1.05, 0.0, 0.0, 0.0, 0.0, 0.0, 0.0, 0.0, 0.0, 0.0, 0.0, 0.0, 0.0, 0.0, 0.0, 0.0, -2.28, -3.53, -3.14, 0.0, 0.0, 7.2, 21.9, -0.0, -8.91, -8.8, 13.28, 17.88, 17.88, 15.65, 13.41, 12.39, 7.69, 7.93, 4.66, 4.52, 4.52, 0.0, 0.0, 0.0, 0.0, 0.0, 0.0, 0.0, -9.21, -9.21, -9.58, -9.58, -9.58, -9.3, -9.3, -9.3, -8.78, -8.78, -8.78, -8.5, -8.22, -8.22, -7.9, -7.9, -7.9, -7.91, -7.91, -7.61, -7.26, -7.26, -7.26, -6.87, -6.87, -6.16, -6.45, -6.45, -5.98, -5.47, -5.47, -4.92, -4.32, -3.91, -3.91, -3.19, -2.61, -1.77, -1.77, -0.93, 0.0, 0.0, 0.0, 0.0, 0.0, 0.0, 0.97, 0.89, 0.85, 0.81, 0.89, 0.89, 0.89, 0.0, 0.0, 0.0, 0.0, 0.0, 0.0, -1.11, -1.11, -1.11, -1.11, 0.0, 0.0, 2.39, 3.25, 0.0, 0.0, 0.0, -1.84, -3.39, -3.68, -1.83, 0.0, 4.81, 9.92, 12.19, 13.79, 19.28, 21.59, 22.0, 19.67, 17.39, 13.19, 13.86, 13.57, 10.12, 7.93, 7.93, 9.8, 6.2, 6.2, -0.0, -0.0, 0.0, 0.0, 0.0, -9.21, -9.21, -9.21, -9.21, -9.21, -9.3, -8.94, -8.73, -8.73, -8.78, -8.78, -8.78, -8.22, -8.22, -7.9, -7.9, -7.9, -7.6, -7.91, -7.61, -7.26, -7.26, -7.26, -6.87, -6.58, -6.58, -6.16, -5.7, -5.98, -5.47, -5.47, -4.92, -4.32, -4.32, -3.91, -3.19, -2.44, -1.77, -1.77, -0.86, -0.86, 0.0, 0.0, 0.0, 0.0, 0.0, 0.0, 0.0, 0.0, 0.0, 0.0, 0.0, 0.0, 0.0, 0.0, 0.0, 0.0, 0.0, -0.89, -1.05, -1.05, -1.11, -1.11, 0.0, 0.0, 2.39, 2.39, 0.0, 0.0, -2.1, -2.82, -3.25, -3.53, -1.77, 0.0, 3.93, 6.34, 8.2, 9.26, 13.98, 18.62, 22.34, 24.6, 11.27, 12.01, 14.42, 14.75, 12.27, 12.27, 9.48, 10.12, 5.6, 0.0, 0.0, 0.0, 0.0, 0.0, 0.0, -9.21, -9.21, -9.21, -9.21, -9.21, -9.21, -8.94, -8.73, -8.73, -8.45, -8.45, -8.78, -8.22, -8.22, -7.9, -7.9, -7.9, -7.6, -7.6, -7.61, -7.26, -7.26, -7.26, -6.87, -6.87, -6.58, -6.16, -5.7, -5.98, -5.47, -5.47, -4.92, -4.32, -4.32, -3.68, -3.19, -2.44, -2.44, -1.77, -1.77, -0.86, -0.93, 0.0, 0.0, 0.0, 0.0, 0.0, 0.0, 0.0, 0.0, 0.0, 0.0, 0.0, 0.0, 0.0, 0.0, -0.94, -0.89, -0.89, -0.89, -2.06, -2.06, -2.17, -1.16, 0.0, 0.0, 0.0, 0.0, 0.0, -3.82, -3.25, -3.39, -1.91, 0.0, 0.0, 1.96, 3.69, 3.9, 5.65, 8.6, 13.5, 21.81, 15.87, 7.21, 12.07, 13.76, 16.54, 16.09, 13.57, 13.86, 0.0, 0.0, 0.0, 0.0, 0.0, 0.0, 0.0, 0.0, -9.21, -9.21, -9.21, -9.21, -9.01, -9.01, -9.01, -8.73, -8.73, -8.73, -8.45, -8.45, -8.19, -7.9, -7.9, -7.9, -7.9, -7.9, -7.6, -7.6, -7.26, -7.26, -7.26, -6.87, -6.87, -6.87, -6.45, -6.45, -5.98, -5.47, -5.47, -4.92, -4.32, -4.32, -3.68, -3.19, -3.19, -2.44, -1.77, -1.7, -0.86, -0.93, -0.93, 0.0, 0.0, 0.0, 0.0, 0.0, 0.0, 0.0, 0.0, 0.0, 0.0, 0.0, -0.94, -0.94, -0.94, -0.89, -0.89, -1.75, -1.75, -2.06, -2.06, -2.17, -1.11, 0.0, 0.0, 0.0, 0.0, 0.0, -1.69, -1.84, 0.0, 0.0, 0.0, 0.0, 0.0, 1.89, 3.9, 5.81, 8.4, 18.33, -0.0, 3.73, 11.96, 14.66, 15.18, 14.75, 13.86, 12.96, 0.0, 0.0, 0.0, 0.0, -0.0, -0.0, -0.0, -0.0, -9.21, -9.21, -9.01, -9.01, -9.01, -9.01, -9.01, -8.73, -8.73, -8.73, -8.45, -8.19, -8.19, -7.9, -7.9, -7.9, -7.9, -7.9, -7.6, -7.6, -7.32, -7.26, -7.26, -6.87, -6.87, -6.45, -6.45, -6.45, -5.98, -5.47, -5.47, -4.92, -4.92, -4.32, -3.91, -3.91, -3.19, -2.51, -2.51, -1.7, -1.7, -0.93, -0.93, -0.93, -0.93, -0.97, 0.0, 0.0, 0.0, 0.0, 0.0, 0.0, 0.0, -0.89, -0.89, -0.94, -0.94, -1.75, -1.75, -1.75, -1.65, -2.54, -2.98, -3.52, -2.46, -2.02, 0.0, 0.0, 0.0, 0.0, 0.0, 0.0, 0.0, 0.0, 0.0, 0.0, 0.0, 0.0, 3.58, 5.49, 6.52, 0.0, -9.8, -0.0, 13.31, 13.91, 14.11, 12.96, 12.96, 0.0, 0.0, 0.0, 0.0, -0.0, -0.0, -0.0, -0.0, -0.0, -9.01, -9.01, -8.65, -8.65, -8.65, -8.65, -8.65, -8.38, -8.73, -8.73, -8.73, -8.19, -8.19, -8.19, -7.9, -7.9, -7.9, -7.9, -7.6, -7.6, -7.6, -6.98, -6.98, -6.61, -6.61, -6.2, -6.2, -6.45, -5.98, -5.98, -5.47, -4.92, -4.92, -4.58, -4.58, -3.91, -3.29, -3.29, -2.51, -2.51, -1.84, -1.84, -1.84, -0.93, -0.93, -1.01, -0.97, -0.97, -0.93, -0.93, -0.89, -0.89, -0.93, -0.89, -0.89, -0.94, -1.84, -1.75, -1.75, -1.75, -2.54, -2.4, -2.83, -3.35, -3.35, -2.83, -1.47, 0.0, 0.0, -1.93, -1.93, -2.02, 0.0, -1.98, -2.06, 0.0, 0.0, 0.0, 3.93, 4.05, 4.3, 0.0, -17.99, 3.54, 14.69, 16.14, 10.73, 10.28, -0.0, -0.0, -0.0, -0.0, -0.0, -0.0, -0.0, -0.0, -0.0, -0.0, -8.65, -8.65, -8.65, -8.65, -8.65, -8.65, -8.65, -8.38, -8.38, -8.38, -8.73, -8.49, -8.19, -8.19, -8.19, -7.9, -7.9, -7.6, -7.6, -7.6, -7.6, -7.27, -6.98, -6.61, -6.61, -6.2, -6.2, -6.2, -5.75, -5.75, -5.47, -5.2, -5.2, -4.4, -4.4, -3.76, -3.29, -3.29, -2.51, -2.51, -2.51, -1.84, -1.84, -1.84, -1.84, -1.01, -0.97, -0.97, -0.93, -0.93, -0.93, -0.89, -0.85, -0.89, -1.75, -1.67, -1.84, -1.75, -1.75, -1.75, -2.54, -2.4, -2.4, -3.6, -3.99, -2.83, -1.47, -1.54, -1.84, -3.65, -5.06, -5.06, -5.06, -1.84, 0.0, 0.0, 0.0, 2.13, 1.96, 4.05, 4.05, 0.0, 0.0, 15.02, 17.75, 16.1, 13.88, 10.73, 10.73, -0.0, -0.0, -0.0, -0.0, 0.0, -0.0, -0.0, -0.0, -0.0, -8.65, -8.65, -8.65, -8.65, -8.65, -8.65, -8.38, -8.38, -8.38, -8.15, -8.15, -8.15, -7.86, -8.19, -8.19, -7.9, -7.6, -7.6, -7.6, -7.6, -7.6, -7.27, -7.27, -6.9, -6.61, -6.2, -6.2, -5.75, -5.75, -5.26, -5.54, -5.0, -5.0, -4.4, -4.4, -4.01, -3.29, -3.29, -3.29, -2.51, -2.51, -2.71, -2.71, -1.84, -1.84, -1.84, -1.92, -1.92, -0.97, -0.93, -0.93, -1.76, -1.76, -1.75, -1.75, -1.67, -1.84, -1.75, -2.54, -2.54, -2.54, -2.4, -2.4, -3.4, -3.77, -1.96, -1.54, -1.54, -2.97, -5.06, -6.17, -7.27, -7.27, -5.9, -1.84, 0.0, 0.0, 0.0, 0.0, 1.96, 2.02, 2.35, 11.9, 14.57, 19.28, 16.45, 14.39, 12.07, 10.73, -0.0, -0.0, -5.0, -8.22, -7.9, -0.0, -0.0, -0.0, -0.0, -8.44, -8.44, -8.44, -8.44, -8.15, -8.15, -8.15, -8.15, -8.15, -8.15, -8.15, -8.15, -8.15, -7.86, -7.86, -7.59, -7.6, -7.6, -7.6, -7.3, -7.27, -7.27, -6.9, -6.9, -6.9, -6.5, -6.5, -6.04, -6.04, -5.54, -5.54, -5.0, -5.0, -4.4, -4.4, -4.01, -3.29, -3.29, -3.29, -3.29, -2.51, -2.51, -2.71, -2.71, -1.84, -1.84, -1.92, -1.92, -1.92, -1.84, -1.84, -1.76, -1.76, -1.75, -1.75, -1.67, -2.44, -2.69, -2.54, -2.54, -2.4, -2.4, -3.09, -3.4, -3.77, -2.99, -2.58, -1.33, -1.39, -1.54, -3.11, -6.17, -8.23, -8.23, -3.82, -1.84, 0.0, 0.0, 0.0, 0.0, 0.0, 4.38, 14.75, 15.13, 17.31, 13.91, 13.23, 10.79, 11.03, 4.6, -0.0, -3.53, -5.2, -5.2, -0.0, -0.0, -0.0, -0.0, -8.08, -8.08, -8.08, -8.44, -8.15, -8.15, -8.15, -8.15, -8.15, -8.15, -8.15, -8.15, -8.15, -8.15, -7.59, -7.59, -7.59, -7.3, -6.98, -6.98, -6.98, -6.98, -6.9, -6.9, -6.5, -6.5, -6.04, -6.04, -6.04, -5.54, -5.54, -5.0, -5.0, -4.4, -4.01, -4.01, -4.01, -3.29, -3.29, -3.29, -3.29, -2.51, -2.71, -2.71, -2.71, -1.84, -1.84, -1.92, -1.92, -1.84, -1.84, -1.76, -1.84, -1.75, -2.57, -2.44, -2.44, -2.69, -2.54, -2.54, -2.4, -2.4, -3.09, -3.09, -3.77, -3.77, -2.09, 0.0, 0.0, 0.0, -1.45, -1.69, -2.49, -5.7, -5.7, -3.98, -1.91, 0.0, 0.0, 0.0, 2.13, 6.2, 6.81, 6.4, 8.48, 9.66, 9.12, 7.78, 8.53, 6.45, -0.0, -0.0, -5.0, -5.0, -0.0, -0.0, -0.0, -0.0, -8.08, -8.08, -8.08, -8.08, -7.81, -7.81, -7.81, -7.81, -7.81, -7.81, -7.81, -7.55, -7.55, -7.55, -7.27, -7.59, -7.59, -7.28, -6.98, -6.98, -6.98, -6.63, -6.63, -6.5, -6.5, -6.5, -6.04, -6.04, -5.54, -5.54, -5.0, -5.0, -4.4, -4.68, -4.68, -4.01, -4.01, -4.01, -3.29, -3.29, -3.29, -3.29, -2.71, -2.71, -2.71, -2.71, -2.71, -2.82, -2.82, -1.92, -1.84, -2.71, -2.7, -2.7, -2.57, -2.44, -2.44, -2.69, -2.54, -2.54, -3.27, -3.09, -3.09, -3.09, -4.26, -4.46, -3.17, 0.0, 0.0, 0.0, 0.0, 0.0, 0.0, 0.0, -2.39, -4.4, -3.98, -1.91, 0.0, 2.45, 6.44, 9.48, 15.62, 6.63, 6.61, 8.0, 7.13, 5.52, 4.8, 2.71, -0.0, -0.0, -0.0, -3.53, -0.0, -0.0, -0.0, -0.0, -8.08, -8.08, -8.08, -8.08, -8.08, -7.81, -7.81, -7.81, -7.81, -7.55, -7.55, -7.55, -7.55, -7.55, -7.55, -7.27, -6.97, -6.97, -6.97, -7.28, -6.63, -6.63, -6.63, -6.24, -6.24, -5.8, -5.8, -5.54, -5.54, -5.54, -5.0, -5.0, -4.4, -4.68, -4.68, -4.01, -4.01, -4.01, -4.01, -3.29, -3.29, -3.53, -3.39, -2.6, -2.6, -2.6, -2.6, -2.82, -2.82, -2.82, -2.71, -2.71, -2.47, -2.7, -2.57, -2.57, -2.44, -2.69, -3.27, -3.27, -3.27, -3.27, -3.27, -3.27, -4.26, -5.15, -4.71, -2.33, -0.94, -1.33, -1.33, 0.0, 0.0, 0.0, 0.0, -3.82, -3.82, -1.84, 0.0, 4.48, 8.85, 11.17, 16.6, 14.86, 10.05, 6.75, 6.34, 3.68, 3.53, 2.71, -0.0, -0.0, -0.0, -3.68, -0.0, -0.0, -0.0, -0.0, -7.73, -7.73, -8.08, -8.08, -8.08, -8.08, -7.55, -7.55, -7.55, -7.55, -7.55, -7.55, -7.55, -7.55, -7.27, -6.97, -6.97, -6.97, -6.97, -6.64, -6.64, -6.93, -6.24, -6.24, -5.8, -5.8, -5.32, -5.32, -5.32, -4.8, -5.0, -5.0, -4.4, -4.5, -4.5, -4.5, -4.01, -4.01, -4.01, -4.01, -3.29, -3.39, -3.39, -3.39, -2.6, -2.6, -2.82, -2.82, -2.82, -2.82, -2.71, -2.59, -2.47, -2.7, -2.57, -2.57, -3.15, -3.15, -3.45, -3.27, -3.27, -3.27, -3.27, -3.91, -4.26, -5.44, -4.71, -3.8, -2.06, -2.49, -2.49, -1.52, -1.69, 0.0, -1.93, -3.65, -5.06, -3.25, 0.0, 2.28, 9.17, 9.8, 13.99, 18.96, 12.86, 6.72, 4.66, 4.18, 1.58, -0.0, -0.0, -3.68, -3.82, -3.68, -0.0, -0.0, -0.0, -0.0, -8.0, -8.0, -7.73, -7.73, -7.85, -7.85, -7.55, -7.55, -7.55, -7.55, -7.55, -7.55, -7.27, -7.27, -7.27, -7.27, -6.97, -6.64, -6.64, -6.64, -6.64, -6.27, -6.27, -5.8, -5.8, -5.8, -5.32, -5.32, -5.32, -4.8, -4.8, -4.8, -4.23, -4.23, -4.5, -4.5, -3.85, -4.01, -4.01, -4.01, -4.01, -3.39, -3.39, -3.39, -3.39, -3.39, -2.82, -2.82, -2.82, -2.82, -2.71, -2.59, -2.59, -3.49, -3.32, -3.32, -3.15, -3.15, -3.45, -3.45, -3.27, -3.27, -3.27, -4.12, -4.5, -5.53, -6.32, -4.96, -3.14, -2.49, -2.49, -1.45, -1.62, -1.54, -3.49, -3.49, -5.63, -3.49, -1.69, 4.32, 6.44, 6.9, 11.52, 17.2, 13.14, 6.72, 2.78, 1.94, 1.77, -0.0, -0.0, -3.68, -3.82, -3.82, -0.0, -0.0, -0.0, -0.0, -8.0, -8.0, -7.8, -7.51, -7.51, -7.51, -7.51, -7.23, -7.23, -6.95, -6.95, -6.95, -6.95, -6.95, -7.27, -7.27, -6.95, -6.64, -6.64, -6.64, -6.27, -6.27, -6.27, -5.85, -6.11, -5.32, -5.32, -5.32, -4.8, -4.8, -4.8, -4.8, -4.23, -4.23, -4.23, -4.23, -3.85, -3.85, -3.85, -3.85, -3.85, -3.39, -3.39, -3.39, -3.39, -3.39, -3.67, -3.67, -3.67, -3.67, -3.51, -3.36, -3.36, -3.49, -3.32, -3.32, -3.15, -3.15, -3.45, -3.45, -3.45, -4.12, -4.12, -4.12, -4.5, -5.53, -6.32, -4.96, -4.0, -2.57, -0.85, 0.0, 0.0, 0.0, 0.0, -1.54, -1.84, -1.93, 0.0, 2.28, 4.65, 4.24, 10.43, 16.54, 12.65, 3.44, -0.0, -0.0, -0.0, -0.0, -0.0, -0.0, -0.0, -0.0, -0.0, -0.0, -0.0, -0.0, -7.44, -7.44, -7.8, -7.8, -7.51, -7.51, -7.51, -7.25, -6.95, -6.95, -6.95, -6.95, -6.95, -6.95, -6.65, -6.65, -6.65, -6.65, -6.35, -6.27, -6.27, -6.27, -5.85, -5.85, -5.85, -5.39, -5.62, -5.32, -4.8, -4.8, -4.8, -4.8, -4.23, -4.23, -4.23, -4.23, -3.85, -3.85, -3.85, -3.85, -3.85, -3.16, -3.39, -3.39, -3.39, -3.39, -3.39, -3.67, -3.67, -3.67, -3.51, -3.36, -3.36, -3.21, -3.49, -3.32, -3.15, -3.15, -3.45, -3.45, -4.12, -4.12, -4.12, -4.12, -4.12, -5.53, -5.72, -5.72, -4.44, -2.83, -1.84, 0.0, 0.0, 0.0, 0.0, 0.0, 0.0, 0.0, 0.0, 0.0, 1.98, 4.81, 10.12, 15.34, 16.81, 3.44, -0.0, -0.0, -0.0, -1.72, -2.06, -3.04, -0.0, -0.0, -0.0, -0.0, -0.0, -0.0, -7.72, -7.72, -7.44, -7.44, -7.44, -7.17, -7.17, -7.25, -7.25, -6.95, -6.95, -6.95, -6.65, -6.65, -6.65, -6.35, -6.35, -6.0, -6.0, -6.0, -6.0, -5.85, -5.85, -5.85, -5.39, -5.39, -5.39, -5.62, -4.8, -4.8, -4.8, -4.8, -4.23, -4.23, -4.23, -4.23, -3.85, -3.85, -3.85, -3.85, -3.16, -3.16, -3.39, -3.39, -3.39, -3.39, -3.39, -3.39, -3.67, -3.51, -3.51, -3.36, -3.36, -3.21, -3.49, -3.32, -3.32, -3.15, -3.8, -4.12, -4.12, -4.12, -4.12, -4.12, -4.71, -5.53, -6.32, -5.72, -4.96, -3.14, -2.97, -0.93, 0.0, 0.0, 0.0, 0.0, 0.0, 0.0, 0.0, 0.0, 0.0, 2.54, 8.31, 12.65, 18.78, 15.02, -0.0, -0.0, -0.0, -2.09, -4.38, -4.98, -7.19, -5.6, -8.85, 0.0, 0.0, 0.0, -7.72, -7.72, -7.44, -7.44, -7.44, -7.17, -7.17, -7.25, -7.25, -6.95, -6.95, -6.95, -6.65, -6.65, -6.65, -6.35, -6.35, -6.0, -6.0, -6.0, -6.0, -5.85, -5.85, -5.85, -5.39, -5.39, -5.39, -5.62, -4.8, -4.8, -4.8, -4.8, -4.23, -4.23, -4.23, -4.23, -3.85, -3.85, -3.85, -3.85, -3.16, -3.16, -3.39, -3.39, -3.39, -3.39, -3.39, -3.39, -3.67, -3.51, -3.51, -3.36, -3.36, -3.21, -3.49, -3.32, -3.32, -3.15, -3.8, -4.12, -4.12, -4.12, -4.12, -4.12, -4.71, -5.53, -6.32, -5.72, -4.96, -3.14, -2.97, -0.93, 0.0, 0.0, 0.0, 0.0, 0.0, 0.0, 0.0, 0.0, 0.0, 2.45, 8.05, 11.44, 14.94, 20.12, 16.75, 2.97, -0.0, -2.28, -4.81, -5.31, -9.8, -9.48, -11.2, 0.0, 0.0, 0.0]}]